     2.10           OBSERVATION DATA    G (GPS)             RINEX VERSION / TYPE
teqc 2006Apr13 CORS-ADM Account 20060629 04:04:03UTC        PGM / RUN BY / DATE
Solaris 5.9|UltraSparc IIi|cc -xarch=v9 SC5.5|=+-|*Sparc    COMMENT
teqc 2006Apr13 CORS/NGS/NOAA 20060629 04:04:02UTC           COMMENT
BIT 2 OF LLI FLAGS DATA COLLECTED UNDER A/S CONDITION       COMMENT
cnmr                                                        MARKER NAME
50512M001                                                   MARKER NUMBER
Peter Paul Camacho Commonwealth of the Northern Mariana Isl OBSERVER / AGENCY
0220233361 TRIMBLE 4700 7.29                                REC # / TYPE / VERS
0220238086 TRM33429.20+GP UNAV                              ANT # / TYPE
 -5087756.9960  3465027.2461  1664652.3620                  APPROX POSITION XYZ
        0.0000        0.0000        0.0000                  ANTENNA: DELTA H/E/N
     1     1                                                WAVELENGTH FACT L1/2
     7    C1    L1    L2    P1    P2    D1    D2            # / TYPES OF OBSERV
    30.0000                                                 INTERVAL
SNR is mapped to RINEX snr flag value [0-9]                 COMMENT
L1 & L2: min(max(int(snr_dBHz/6), 0), 9)                    COMMENT
Forced Modulo Decimation to 30 seconds                      COMMENT
  2006     6    29     3     0    0.0000000     GPS         TIME OF FIRST OBS
                                                            END OF HEADER
 06  6 29  3  0  0.0000000  0  7G18G21G29G26G 5G10G 9
  24617199.5854    -969771.07546   -749114.38844                  24617197.1984
      3451.6214
  22736900.1064  -10430483.96647  -8120475.38745                  22736896.3994
      2149.4734
  22407049.1574  -11382330.76348  -9079891.94546                  22407046.8194
      -396.1914
  21973690.8894  -14864845.09348 -11830022.72146                  21973688.5244
      -561.8024
  23181788.4654   -8363674.04147  -6510661.33345                  23181786.1064
      3506.1284
  21563141.2124  -20417990.16648 -15809021.59647                  21563139.8374
      -952.0124
  20253010.9744  -26709294.68848 -20791787.09747                  20253007.9034
      1105.5574
 06  6 29  3  0 30.0000000  0  7G18G21G29G26G 5G10G 9
  24597488.6184   -1073356.90946   -829830.59544                  24597484.8664
      3454.3994
  22724676.7014  -10494718.25147  -8170528.06845                  22724673.1024
      2133.0134
  22409303.4354  -11370482.77448  -9070659.76945                  22409299.3554
      -393.3594
  21976896.5744  -14847999.14748 -11816896.03446                  21976894.0894
      -561.0114
  23161774.3344   -8468848.58247  -6592615.45145                  23161771.5594
      3505.6744
  21568615.0154  -20389223.76148 -15786606.21847                  21568615.7494
      -965.4984
  20246751.1964  -26742191.81548 -20817421.22147                  20246748.3394
      1087.8324
 06  6 29  3  1  0.0000000  0  7G18G21G29G26G 5G10G 9
  24577758.2524   -1177044.44747   -910626.02144                  24577753.9984
      3457.9884
  22712544.1694  -10558476.59947  -8220209.90145                  22712540.6994
      2117.2514
  22411538.8174  -11358736.50148  -9061506.81346                  22411535.6004
      -389.8934
  21980095.0714  -14831191.56648 -11803799.22746                  21980092.5244
      -559.6484
  23141759.8814   -8574025.49647  -6674571.45145                  23141757.2904
      3505.8944
  21574163.3684  -20360068.89148 -15763888.14747                  21574163.2674
      -978.3404
  20240589.3494  -26774571.58648 -20842652.22047                  20240586.1314
      1070.6794
 06  6 29  3  1 30.0000000  0  7G18G21G29G26G 5G10G 9
  24558007.4914   -1280829.97947   -991497.83044                  24558003.6894
      3461.1434
  22700502.4904  -10621756.15147  -8269518.63845                  22700498.7614
      2101.1574
  22413755.1034  -11347090.15748  -9052431.75946                  22413752.5524
      -386.5234
  21983286.3084  -14814421.06648 -11790731.30346                  21983283.9684
      -558.4524
  23121745.0104   -8679200.44747  -6756525.87445                  23121742.7644
      3505.7474
  21579785.2114  -20330523.64548 -15740865.87546                  21579783.5844
      -991.3964
  20234526.6304  -26806432.40048 -20867478.82347                  20234523.4674
      1053.3644
 06  6 29  3  2  0.0000000  0  7G18G21G29G26G 5G10G 9
  24538239.8254   -1384712.25647  -1072445.01144                  24538235.7274
      3464.4924
  22688551.6444  -10684555.82347  -8318453.44045                  22688548.2064
      2085.4694
  22415952.1184  -11335543.80948  -9043434.61645                  22415948.5464
      -383.0524
  21986470.5194  -14797688.39448 -11777692.86446                  21986467.3514
      -556.9484
  23101731.4654   -8784371.07547  -6838476.95845                  23101730.0164
      3505.7284
  21585481.9504  -20300588.30648 -15717539.67346                  21585478.3744
     -1004.1994
  20228561.8574  -26837775.07648 -20891901.67147                  20228558.7044
      1036.3384
 06  6 29  3  2 30.0000000  0  7G18G21G29G26G 5G10G 9
  24518454.1804   -1488684.29147  -1153462.16044                  24518450.8574
      3467.5144
  22676694.5484  -10746868.28247  -8367008.59345                  22676690.8574
      2069.3214
  22418130.8654  -11324091.65148  -9034510.88346                  22418127.8784
      -379.8934
  21989648.4674  -14780988.19648 -11764679.74846                  21989646.0234
      -555.8154
  23081720.1504   -8889528.85447  -6920418.02745                  23081719.1354
      3505.2694
  21591253.7434  -20270256.88948 -15693904.84346                  21591249.3074
     -1017.3244
  20222697.3994  -26868594.08948 -20915916.48947                  20222694.1984
      1018.8484
 06  6 29  3  3  0.0000000  0  7G18G21G29G26G 5G10G 9
  24498650.7554   -1592752.71747  -1234554.41044                  24498646.6154
      3470.2344
  22664927.6094  -10808701.44047  -8415190.26745                  22664924.3214
      2052.7934
  22420291.2284  -11312741.97948  -9025666.98846                  22420288.3794
      -376.8604
  21992818.7384  -14764329.10748 -11751698.64046                  21992815.9424
      -554.8544
  23061710.8274   -8994679.60847  -7002353.62945                  23061709.8654
      3504.6144
  21597099.5104  -20239537.72348 -15669967.88046                  21597094.8234
     -1030.6744
  20216930.6874  -26898898.61648 -20939530.40047                  20216927.7414
      1001.2994
 06  6 29  3  3 30.0000000  0  7G18G21G29G26G 5G10G 9
  24478829.7294   -1696914.40447  -1315719.27944                  24478825.4414
      3473.4334
  22653252.6584  -10870052.41547  -8462996.20945                  22653249.7154
      2036.9244
  22422431.9874  -11301492.95748  -9016901.51746                  22422428.7614
      -373.3794
  21995981.1494  -14747710.16648 -11738748.84646                  21995978.4174
      -553.4334
  23041703.4234   -9099819.17847  -7084280.50445                  23041702.1374
      3504.3954
  21603019.5744  -20208429.11648 -15645727.44246                  21603015.4474
     -1043.5164
  20211262.1584  -26928686.85548 -20962742.02547                  20211259.5144
       984.2094
 06  6 29  3  4  0.0000000  0  7G18G21G29G26G 5G10G 9
  24458990.6004   -1801166.13847  -1396954.40144                  24458986.5514
      3476.4754
  22641670.2224  -10930918.41047  -8510424.26145                  22641667.4094
      2020.6694
  22424553.1034  -11290342.97048  -9008213.21646                  22424551.1124
      -370.1864
  21999136.4404  -14731129.99748 -11725829.24846                  21999133.3954
      -552.1584
  23021697.7644   -9204943.37947  -7166195.41145                  23021697.0704
      3503.6334
  21609013.3934  -20176929.56148 -15621182.34946                  21609010.6934
     -1056.6164
  20205692.1184  -26957958.20848 -20985550.86447                  20205688.7154
       966.9434
 06  6 29  3  4 30.0000000  0  7G18G21G29G26G 5G10G 9
  24439136.1594   -1905501.46247  -1478254.58244                  24439132.3544
      3479.3114
  22630181.7784  -10991293.70547  -8557469.93345                  22630177.7674
      2004.4584
  22426657.3514  -11279287.26248  -8999598.38646                  22426654.5074
      -366.8414
  22002284.5944  -14714584.37848 -11712936.53146                  22002281.2034
      -550.9134
  23001698.9614   -9310044.78847  -7248092.56745                  23001696.8254
      3503.1204
  21615082.7984  -20145034.19748 -15596328.81846                  21615080.5134
     -1069.6054
  20200220.8014  -26986708.27248 -21007953.50647                  20200218.2854
       949.7464
 06  6 29  3  5  0.0000000  0  7G18G21G29G26G 5G10G 9
  24419264.4434   -2009924.84346  -1559623.46444                  24419260.9334
      3482.7884
  22618784.7654  -11051183.56547  -8604137.37845                  22618781.5774
      1988.7014
  22428741.6774  -11268331.83548  -8991061.70246                  22428739.2244
      -363.1204
  22005425.2014  -14698079.97148 -11700075.95846                  22005422.3754
      -549.0194
  22981701.9204   -9415127.03147  -7329974.79945                  22981700.3944
      3502.8524
  21621226.5444  -20112749.44148 -15571171.88946                  21621224.9394
     -1082.2224
  20194847.8394  -27014944.25048 -21029955.57047                  20194844.7874
       933.1454
 06  6 29  3  5 30.0000000  0  7G18G21G29G26G 5G10G 9
  24399376.7424   -2114437.28447  -1641061.63944                  24399373.4794
      3485.0244
  22607480.2574  -11110589.32847  -8650427.56145                  22607477.0494
      1971.8314
  22430807.6224  -11257478.91048  -8982604.89546                  22430804.6654
      -360.2494
  22008558.2704  -14681619.66448 -11687249.74346                  22008554.6994
      -548.1154
  22961709.6224   -9520189.90747  -7411841.94045                  22961708.0764
      3501.5284
  21627443.6114  -20080077.72148 -15545713.41746                  21627441.8644
     -1095.6934
  20189571.8484  -27042669.29948 -21051559.48847                  20189568.4944
       915.4594
 06  6 29  3  6  0.0000000  0  7G18G21G29G26G 5G10G 9
  24379473.1364   -2219032.82146  -1722564.68343                  24379469.2414
      3487.9354
  22596268.4914  -11169505.77847  -8696336.49545                  22596266.0074
      1955.6794
  22432853.8994  -11246724.17548  -8974224.57746                  22432850.9154
      -356.9094
  22011682.6164  -14665199.12148 -11674454.50446                  22011678.9784
      -546.7144
  22941722.2394   -9625226.48547  -7493688.57145                  22941720.7794
      3500.7664
  21633734.9744  -20047014.96748 -15519950.23946                  21633733.6704
     -1108.6474
  20184394.0634  -27069879.67448 -21072762.38247                  20184390.9004
       898.4334
 06  6 29  3  6 30.0000000  0  7G18G21G29G26G 5G10G 9
  24359552.8044   -2323708.59546  -1804130.23543                  24359549.8534
      3490.5574
  22585150.3224  -11227930.67147  -8741862.40345                  22585147.8014
      1939.4144
  22434882.3214  -11236066.06148  -8965919.56246                  22434879.1964
      -353.5794
  22014799.6304  -14648817.80348 -11661689.83546                  22014797.7724
      -545.3084
  22921739.4574   -9730232.75847  -7575511.57345                  22921738.0484
      3499.8144
  21640101.3464  -20013559.85248 -15493881.34047                  21640099.7274
     -1121.6064
  20179314.0404  -27096574.37348 -21093563.44147                  20179310.8684
       881.2944
 06  6 29  3  7  0.0000000  0  8G15G18G21G29G26G 5G10G 9
  24158687.8334     -24639.44846
      2936.5774
  24339619.0424   -2428463.72646  -1885757.54843                  24339615.2924
      3493.0714
  22574126.8394  -11285864.60347  -8787005.76545                  22574123.1354
      1922.8914
  22436891.5294  -11225505.72548  -8957690.73546                  22436889.1874
      -350.4884
  22017909.0014  -14632477.03848 -11648956.80246                  22017906.6314
      -544.0234
  22901763.5344   -9835207.33747  -7657309.90345                  22901761.3954
      3498.5894
  21646542.4134  -19979713.35048 -15467507.45646                  21646540.5054
     -1134.7124
  20174332.1134  -27122755.23448 -21113964.11947                  20174328.7344
       864.0484
 06  6 29  3  7 30.0000000  0  8G15G18G21G29G26G 5G10G 9
  24141958.9864    -112552.81046    -77132.87943                  24141956.6944
      2924.2044
  24319669.8264   -2533297.38246  -1967446.07043                  24319666.8824
      3495.6254
  22563195.3984  -11343306.58547  -8831765.76945                  22563192.9324
      1906.3434
  22438882.7874  -11215043.18048  -8949538.11545                  22438879.7134
      -347.1634
  22021010.4984  -14616177.75948 -11636256.08346                  22021008.9644
      -542.7344
  22881793.9004   -9940147.88847  -7739081.69245                  22881792.2154
      3497.2804
  21653057.5504  -19945476.07448 -15440829.06846                  21653056.0074
     -1147.8374
  20169447.8154  -27148423.47648 -21133965.33647                  20169444.1354
       847.0264
 06  6 29  3  8  0.0000000  0  8G15G18G21G29G26G 5G10G 9
  24125300.5104    -200091.73946   -145344.98443                  24125298.6574
      2911.6994
  24299706.5434   -2638201.51346  -2049189.53344                  24299704.2804
      3497.8324
  22552359.7954  -11400249.71147  -8876137.04045                  22552356.4714
      1889.7704
  22440856.1604  -11204672.13848  -8941456.78246                  22440853.1464
      -344.2094
  22024105.6454  -14599913.84548 -11623582.89846                  22024101.8384
      -541.5384
  22861833.1104  -10045045.56447  -7820820.10145                  22861830.7384
      3495.8014
  21659648.2264  -19910842.20548 -15413841.64946                  21659646.6814
     -1161.1334
  20164662.0304  -27173573.98148 -21153563.13447                  20164658.7554
       829.6924
 06  6 29  3  8 30.0000000  0  8G15G18G21G29G26G 5G10G 9
  24108713.0304    -287256.56746   -213265.64843                  24108711.3104
      2899.3074
  24279730.6444   -2743176.83646  -2130988.42643                  24279727.3524
      3500.3614
  22541618.0444  -11456695.84547  -8920121.06445                  22541614.4464
      1873.2474
  22442812.0024  -11194394.75948  -8933448.42546                  22442809.0254
      -340.9574
  22027193.3764  -14583688.11348 -11610939.45046                  22027190.0354
      -540.2154
  22841879.5074  -10149900.08247  -7902524.86745                  22841878.0944
      3494.4874
  21666314.1124  -19875814.10348 -15386547.02846                  21666312.2484
     -1174.1464
  20159973.5594  -27198209.54848 -21172759.67047                  20159970.8954
       812.7544
 06  6 29  3  9  0.0000000  0  8G15G18G21G29G26G 5G10G 9
  24092197.2424    -374049.37746   -280896.38943                  24092195.5844
      2887.0754
  24259741.1424   -2848225.70146  -2212844.70243                  24259736.8274
      3503.0474
  22530971.0414  -11512647.65947  -8963719.92445                  22530967.7064
      1857.0264
  22444748.3874  -11184215.12448  -8925516.26046                  22444746.4864
      -337.5344
  22030272.9884  -14567505.04048 -11598329.26246                  22030270.4094
      -538.4964
  22821934.3024  -10254712.89647  -7984197.12845                  22821932.1354
      3493.1894
  21673053.5564  -19840396.05248 -15358948.55546                  21673051.4444
     -1186.8654
  20155383.0204  -27222335.54148 -21191559.15347                  20155379.4584
       795.9184
 06  6 29  3  9 30.0000000  0  8G15G18G21G29G26G 5G10G 9
  24075751.4554    -460469.51746   -348236.70343                  24075750.2004
      2874.4044
  24239736.4214   -2953347.13746  -2294757.46243                  24239733.3994
      3505.1664
  22520417.9594  -11568105.61447  -9006933.92345                  22520415.2304
      1840.2104
  22446667.5284  -11174133.66248  -8917660.57646                  22446664.8584
      -334.4294
  22033343.9844  -14551365.85848 -11585753.29146                  22033341.2414
      -537.2904
  22801997.3364  -10359482.23347  -8065835.51245                  22801995.9514
      3491.5384
  21679867.6724  -19804589.12148 -15331047.05546                  21679865.3734
     -1200.0984
  20150888.7624  -27245952.98448 -21209962.34947                  20150885.3714
       778.7264
 06  6 29  3 10  0.0000000  0  8G15G18G21G29G26G 5G10G 9
  24059380.3154    -546503.59846   -415276.23443                  24059378.7014
      2861.5334
  24219721.1504   -3058528.60046  -2376717.03543                  24219717.7984
      3507.2124
  22509961.3334  -11623057.55747  -9049753.62445                  22509957.3304
      1823.4814
  22448569.4224  -11164139.04548  -8909872.57745                  22448566.4364
      -331.5144
  22036408.8024  -14535259.43848 -11573202.81546                  22036405.9854
      -536.1524
  22782071.1044  -10464194.26847  -8147429.27245                  22782069.7024
      3489.5614
  21686757.3974  -19768382.55147 -15302834.14846                  21686755.0824
     -1213.3844
  20146493.0884  -27269051.51948 -21227961.19647                  20146490.2394
       761.4704
 06  6 29  3 10 30.0000000  0  8G15G18G21G29G26G 5G10G 9
  24043080.6274    -632161.48946   -482022.57043                  24043078.5564
      2848.6824
  24199693.0704   -3163779.60546  -2458730.74643                  24199690.2864
      3509.1604
  22499598.1424  -11677514.33647  -9092187.51145                  22499594.4414
      1806.5774
  22450452.4904  -11154242.58147  -8902161.06346                  22450449.8704
      -328.5644
  22039465.8364  -14519197.75748 -11560687.21846                  22039462.4904
      -535.0054
  22762154.4534  -10568857.96447  -8228985.34445                  22762152.2184
      3487.5984
  21693721.1014  -19731788.07147 -15274318.99446                  21693718.7674
     -1226.6504
  20142193.7864  -27291643.89948 -21245565.66447                  20142190.8184
       744.3164
 06  6 29  3 11  0.0000000  0  8G15G18G21G29G26G 5G10G 9
  24026852.4644    -717438.46746   -548472.15143                  24026850.9054
      2835.8894
  24179651.2854   -3269095.90546  -2540795.31643                  24179648.5264
      3511.5144
  22489329.7874  -11731472.77647  -9134233.06545                  22489326.9454
      1790.1374
  22452317.6124  -11144441.26147  -8894523.67146                  22452314.9604
      -325.2594
  22042513.6114  -14503178.34148 -11548204.55946                  22042510.7014
      -533.4184
  22742248.1044  -10673467.84047  -8310499.48645                  22742245.6494
      3485.8504
  21700758.8064  -19694803.18248 -15245499.62046                  21700756.4114
     -1239.5214
  20137991.1824  -27313728.43648 -21262774.38447                  20137988.1964
       727.5344
 06  6 29  3 11 30.0000000  0  8G15G18G21G29G26G 5G10G 9
  24010698.3924    -802328.04646   -614619.88143                  24010696.3924
      2823.5304
  24159599.2604   -3374471.21946  -2622905.91444                  24159596.3284
      3513.5554
  22479158.0754  -11784927.20347  -9175885.88345                  22479154.8824
      1773.6284
  22454165.5034  -11134730.42747  -8886956.79946                  22454163.2204
      -322.0124
  22045555.1684  -14487197.09948 -11535751.63246                  22045552.3314
      -531.8264
  22722352.6024  -10778016.47847  -8391965.89345                  22722350.3684
      3484.0774
  21707871.4914  -19657423.57047 -15216372.65446                  21707869.5654
     -1252.3684
  20133885.3384  -27335301.06848 -21279584.21747                  20133882.8434
       710.7574
 06  6 29  3 12  0.0000000  0  8G15G18G21G29G26G 5G10G 9
  23994617.8824    -886832.70846   -680467.66643                  23994615.8434
      2810.3864
  24139535.6744   -3479908.12447  -2705064.51644                  24139533.1814
      3515.4594
  22469081.1034  -11837881.76047  -9217149.17945                  22469078.3684
      1756.7384
  22455995.3034  -11125114.35047  -8879463.75846                  22455993.1644
      -318.8924
  22048588.2574  -14471258.54548 -11523331.99646                  22048585.4054
      -530.6104
  22702468.9174  -10882505.91847  -8473386.17945                  22702467.3844
      3481.8994
  21715058.8424  -19619654.01147 -15186941.85546                  21715056.9154
     -1265.5274
  20129876.9864  -27356367.49448 -21295999.62347                  20129874.0134
       693.7844
 06  6 29  3 12 30.0000000  0  8G15G18G21G29G26G 5G10G 9
  23978610.8844    -970951.28546   -746014.55343                  23978608.5574
      2797.5104
  24119459.8534   -3585405.34847  -2787270.13644                  24119457.3764
      3517.6814
  22459099.6974  -11890335.44047  -9258022.19745                  22459095.6444
      1740.0644
  22457806.6684  -11115592.89847  -8872044.46846                  22457804.5574
      -315.8454
  22051613.2084  -14455363.30448 -11510946.08946                  22051609.8514
      -529.1454
  22682597.1644  -10986933.71847  -8554758.44845                  22682595.4984
      3479.9174
  21722320.5364  -19581495.26947 -15157207.79346                  21722317.3164
     -1278.4474
  20125964.7144  -27376928.82448 -21312021.44447                  20125961.4914
       676.9484
 06  6 29  3 13  0.0000000  0  8G15G18G21G29G26G 5G10G 9
  23962677.2094   -1054681.91146   -811259.10143                  23962674.7484
      2784.4194
  24099373.1364   -3690960.92546  -2869521.15944                  24099370.1904
      3519.3994
  22449213.4144  -11942288.40547  -9298505.04545                  22449210.0884
      1723.2964
  22459601.3604  -11106165.97247  -8864698.83546                  22459598.9584
      -312.8274
  22054629.3604  -14439511.58348 -11498594.10146                  22054626.6804
      -527.8224
  22662737.2334  -11091297.13347  -8636080.53845                  22662735.5504
      3477.5784
  21729656.2834  -19542947.44747 -15127170.56346                  21729653.6104
     -1291.5384
  20122147.5114  -27396986.24748 -21327650.60747                  20122144.8744
       660.0154
 06  6 29  3 13 30.0000000  0  8G15G18G21G29G26G 5G10G 9
  23946817.8054   -1138022.49746   -876199.80443                  23946816.3184
      2771.5044
  24079275.6944   -3796572.96646  -2951816.21744                  24079272.8824
      3521.3044
  22439422.5424  -11993739.63147  -9338596.91045                  22439418.9604
      1706.6554
  22461377.3624  -11096832.79647  -8857426.23446                  22461375.0664
      -309.5904
  22057637.6894  -14423703.43448 -11486276.07646                  22057635.0554
      -526.2264
  22642890.2084  -11195593.23047  -8717350.18045                  22642887.8934
      3475.2884
  21737065.5794  -19504010.77947 -15096830.32046                  21737062.3494
     -1304.3554
  20118426.9944  -27416540.25448 -21342887.50447                  20118423.9624
       643.3844
 06  6 29  3 14  0.0000000  0  8G15G18G21G29G26G 5G10G 9
  23931033.5514   -1220969.07946   -940833.52643                  23931031.8904
      2758.2134
  24059168.6484   -3902237.09446  -3034151.85344                  24059165.6354
      3522.9544
  22429727.7794  -12044686.48347  -9378295.78345                  22429724.0034
      1689.7364
  22463136.1064  -11087591.00147  -8850224.85646                  22463133.1324
      -306.5194
  22060638.0314  -14407936.81848 -11473990.41346                  22060634.7424
      -524.9124
  22623056.4634  -11299817.20347  -8798563.62545                  22623054.4614
      3472.8664
  21744549.2164  -19464683.42347 -15066185.64846                  21744546.1364
     -1317.4414
  20114801.5954  -27435590.43448 -21357731.80647                  20114798.6894
       626.5484
 06  6 29  3 14 30.0000000  0  8G15G18G21G29G26G 5G10G 9
  23915326.0974   -1303516.61346  -1005156.26943                  23915322.8534
      2745.0594
  24039052.7684   -4007948.48746  -3116524.32344                  24039049.4724
      3524.7754
  22420129.5134  -12095124.49847  -9417598.14345                  22420126.3354
      1672.9744
  22464877.6134  -11078436.90047  -8843091.79746                  22464875.7824
      -303.5214
  22063631.0064  -14392208.60248 -11461734.65746                  22063627.2054
      -523.5254
  22603238.9494  -11403962.69547  -8879715.91545                  22603236.4584
      3470.2834
  21752107.8204  -19424962.32147 -15035234.15646                  21752104.8344
     -1330.4984
  20111273.2354  -27454133.66648 -21372181.07747                  20111269.7854
       609.8344
 06  6 29  3 15  0.0000000  0  8G15G18G21G29G26G 5G10G 9
  23899690.6614   -1385674.84846  -1069175.68043                  23899689.7264
      2732.0854
  24018925.0734   -4113716.75946  -3198941.12144                  24018922.1714
      3526.4064
  22410625.9974  -12145064.76747  -9456512.64145                  22410622.7104
      1656.3234
  22466601.0164  -11069381.67347  -8836035.80846                  22466598.4514
      -300.2594
  22066614.4544  -14376530.27148 -11449517.78446                  22066611.9514
      -521.7684
  22583433.6094  -11508038.70647  -8960814.08645                  22583431.5004
      3467.9304
  21759739.6874  -19384859.46247 -15003985.19046                  21759736.1434
     -1343.1354
  20107838.3934  -27472182.56648 -21386245.15247                  20107835.0854
       593.3844
 06  6 29  3 15 30.0000000  0  8G15G18G21G29G26G 5G10G 9
  23884132.1734   -1467435.42546  -1132885.19643                  23884130.5524
      2718.3744
  23998789.5404   -4219533.84246  -3281395.94044                  23998786.2154
      3527.6564
  22401219.1224  -12194500.15047  -9495033.74945                  22401215.7574
      1639.2384
  22468307.0054  -11060418.56247  -8829051.57746                  22468303.9854
      -297.4464
  22069589.4904  -14360895.88748 -11437335.14846                  22069586.5934
      -520.6304
  22563643.5424  -11612036.05947  -9041850.94345                  22563642.3464
      3465.0154
  21767443.8824  -19344368.89147 -14972434.12246                  21767441.5194
     -1356.4314
  20104498.4924  -27489731.90448 -21399919.95947                  20104495.6944
       576.3724
 06  6 29  3 15 59.9990000  0  8G15G18G21G29G26G 5G10G 9
  23868651.4614   -1548788.17146  -1196276.95543                  23868649.8014
      2705.2004
  23978645.4324   -4325388.15346  -3363879.79644                  23978643.2044
      3529.3754
  22391909.1984  -12243423.11847  -9533155.53345                  22391905.6504
      1622.3244
  22469995.7524  -11051541.59847  -8822134.49645                  22469993.4714
      -294.3954
  22072557.5984  -14345299.95648 -11425182.47246                  22072554.6534
      -519.2294
  22543870.3144  -11715942.58247  -9122816.99445                  22543869.5114
      3462.2024
  21775224.4304  -19303486.24747 -14940577.54246                  21775221.8784
     -1369.3124
  20101254.9684  -27506776.28148 -21413201.29347                  20101251.8654
       559.8294
 06  6 29  3 16 29.9990000  0  8G15G18G21G29G26G 5G10G 9
  23853247.5714   -1629742.36446  -1259358.14543                  23853244.7114
      2691.9294
  23958493.2324   -4431290.70246  -3446401.21544                  23958490.1984
      3530.9424
  22382695.6834  -12291841.58847  -9570884.19645                  22382692.5744
      1605.6644
  22471667.8064  -11042755.32647  -8815288.06745                  22471665.7304
      -291.3184
  22075516.9714  -14329747.11547 -11413063.38946                  22075513.6574
      -517.5784
  22524113.9904  -11819767.95147  -9203719.84246                  22524111.8934
      3459.4874
  21783077.3994  -19262214.93847 -14908418.08846                  21783074.7804
     -1382.0614
  20098106.1744  -27523323.37548 -21426095.12747                  20098102.8424
       543.4674
 06  6 29  3 16 59.9990000  0  8G15G18G21G29G26G 5G10G 9
  23837919.0004   -1710289.74046  -1322122.33843                  23837918.0884
      2678.2374
  23938333.3454   -4537232.15846  -3528952.98844                  23938330.6594
      3532.0704
  22373578.9194  -12339750.24747  -9608215.65045                  22373575.1514
      1588.4914
  22473323.1444  -11034055.98947  -8808509.36646                  22473320.7334
      -288.5064
  22078468.4894  -14314234.39647 -11400975.57546                  22078467.0254
      -516.4114
  22504373.8874  -11923502.21447  -9284551.70145                  22504371.4914
      3456.3674
  21791006.0074  -19220552.99447 -14875954.25346                  21791003.0394
     -1395.1274
  20095053.0754  -27539369.67448 -21438598.74047                  20095049.7754
       526.6504
 06  6 29  3 17 29.9990000  0  8G15G18G21G29G26G 5G10G 9
  23822667.8474   -1790430.34046  -1384569.56143                  23822667.0024
      2664.2484
  23918166.1554   -4643212.45046  -3611534.99344                  23918163.0904
      3533.1794
  22364558.8554  -12387150.18247  -9645150.65845                  22364555.3334
      1571.3334
  22474961.5504  -11025444.91047  -8801799.47146                  22474959.9014
      -285.7134
  22081412.4554  -14298763.63947 -11388920.44346                  22081410.3174
      -515.1124
  22484651.0974  -12027144.49847  -9365311.88545                  22484649.1484
      3453.0624
  21799007.9934  -19178502.64547 -14843187.77546                  21799005.2424
     -1408.2574
  20092094.2304  -27554919.05648 -21450715.14347                  20092091.2344
       509.9514
 06  6 29  3 17 59.9990000  0  8G15G18G21G29G26G 5G10G 9
  23807495.8724   -1870158.77546  -1446695.68043                  23807495.2094
      2650.6454
  23897991.9214   -4749225.69246  -3694142.67444                  23897989.4014
      3534.1654
  22355637.0264  -12434037.33347  -9681686.10945                  22355633.4874
      1554.2334
  22476584.9864  -11016917.85247  -8795155.04246                  22476582.7724
      -282.8714
  22084349.3894  -14283331.30747 -11376895.26546                  22084346.5504
      -513.8724
  22464946.9844  -12130688.28947  -9445995.31345                  22464945.4874
      3449.6294
  21807084.2914  -19136060.89847 -14810116.30146                  21807081.5824
     -1421.2944
  20089230.2374  -27569968.55848 -21462442.02847                  20089226.9554
       493.2624
 06  6 29  3 18 29.9990000  0  8G15G18G21G29G26G 5G10G 9
  23792403.4744   -1949477.09646  -1508502.18543                  23792400.6774
      2636.8604
  23877812.3154   -4855273.90046  -3776777.57444                  23877809.1084
      3535.4254
  22346811.5084  -12480414.74147  -9717824.35145                  22346808.4934
      1537.2754
  22478190.6564  -11008478.31247  -8788578.81645                  22478188.8104
      -280.1124
  22087278.2044  -14267941.12347 -11364902.90546                  22087274.7184
      -512.4614
  22445262.3194  -12234134.47147  -9526602.69445                  22445260.7904
      3446.2994
  21815234.3024  -19093231.65347 -14776742.89146                  21815231.9594
     -1434.2044
  20086460.7744  -27584522.84648 -21473783.02147                  20086457.6924
       476.7294
 06  6 29  3 18 59.9990000  0  8G15G18G21G29G26G 5G10G 9
  23777389.7534   -2028375.41346  -1569981.43243                  23777387.2704
      2623.2234
  23857626.7894   -4961347.20747  -3859432.09144                  23857623.8754
      3536.3524
  22338084.6754  -12526273.97647  -9753558.83545                  22338081.3534
      1520.1954
  22479781.7254  -11000117.74047  -8782064.10445                  22479778.8264
      -277.1584
  22090200.4734  -14252585.04047 -11352937.14246                  22090198.5664
      -511.0844
  22425597.6174  -12337472.15847  -9607125.53045                  22425595.2514
      3442.9344
  21823459.6284  -19050007.39147 -14743061.66746                  21823457.2104
     -1447.1634
  20083787.0034  -27598575.15648 -21484732.87347                  20083783.2954
       460.2784
 06  6 29  3 19 29.9990000  0  8G15G18G21G29G26G 5G10G 9
  23762453.6594   -2106861.86946  -1631139.72943                  23762452.2534
      2609.5804
  23837435.4284   -5067453.12047  -3942111.97144                  23837432.4994
      3537.4564
  22329454.8884  -12571624.20947  -9788896.66345                  22329451.1084
      1503.4774
  22481355.7604  -10991845.11947  -8775617.93745                  22481353.7874
      -274.0874
  22093114.0544  -14237272.57447 -11341005.37546                  22093110.8304
      -509.4784
  22405952.3644  -12440708.07647  -9687569.07645                  22405950.3934
      3439.6884
  21831758.6664  -19006398.48147 -14709080.73446                  21831756.3204
     -1459.7714
  20081206.1084  -27612136.06048 -21495299.80947                  20081203.2014
       444.1064
 06  6 29  3 19 59.9990000  0  8G15G18G21G29G26G 5G10G 9
  23747597.3374   -2184935.71946  -1691976.51343                  23747594.9914
      2595.3174
  23817237.7414   -5173590.35046  -4024816.30044                  23817235.0384
      3538.0814
  22320921.6894  -12616466.39647  -9823838.63945                  22320918.5284
      1486.0744
  22482913.1314  -10983661.08247  -8769240.80346                  22482910.9814
      -271.5334
  22096019.5324  -14222004.88247 -11329108.45946                  22096017.0224
      -508.3984
  22386327.0694  -12543840.53647  -9767931.98746                  22386325.3434
      3435.7814
  21840130.3914  -18962406.11047 -14674800.97846                  21840127.8014
     -1473.0374
  20078718.5104  -27625208.00948 -21505485.73147                  20078715.3254
       427.4074
 06  6 29  3 20 29.9990000  0  8G15G18G21G29G26G 5G10G 9
  23732819.9264   -2262590.68346  -1752486.90443                  23732817.7464
      2581.4404
  23797036.4014   -5279752.48547  -4107540.00344                  23797032.6634
      3539.1504
  22312486.0574  -12660795.41047  -9858380.74245                  22312482.4074
      1468.9804
  22484455.1604  -10975560.43047  -8762928.65646                  22484452.4894
      -268.6624
  22098917.2124  -14206777.52847 -11317243.02346                  22098915.6424
      -506.9094
  22366722.6024  -12646862.03347  -9848208.47245                  22366720.5564
      3432.2124
  21848575.3184  -18918026.20347 -14640219.26346                  21848573.0214
     -1485.7764
  20076324.4854  -27637787.83348 -21515288.20547                  20076321.2874
       411.1524
 06  6 29  3 20 59.9990000  0  8G15G18G21G29G26G 5G10G 9
  23718121.5384   -2339829.24146  -1812672.76343                  23718119.2674
      2567.5594
  23776828.4754   -5385941.72046  -4190284.81744                  23776826.6194
      3540.0594
  22304148.2654  -12704615.11147  -9892525.94646                  22304144.4224
      1452.1094
  22485979.5594  -10967546.70647  -8756684.19846                  22485977.3124
      -265.7324
  22101806.3704  -14191594.33148 -11305411.94946                  22101803.2254
      -505.4394
  22347139.1344  -12749773.76647  -9928399.37345                  22347138.1604
      3428.5654
  21857093.3204  -18873263.44147 -14605339.19446                  21857091.1674
     -1498.6134
  20074023.2194  -27649880.47848 -21524711.03247                  20074020.7634
       394.9614
 06  6 29  3 21 29.9990000  0  8G15G18G21G29G26G 5G10G 9
  23703504.4284   -2416643.99546  -1872528.47243                  23703501.9634
      2553.7944
  23756617.9494   -5492150.33146  -4273044.73644                  23756615.7814
      3541.0064
  22295907.5334  -12747919.13147  -9926269.35745                  22295903.9124
      1435.3324
  22487489.1464  -10959613.83547  -8750502.77445                  22487486.9704
      -262.7054
  22104688.6084  -14176449.39248 -11293610.71046                  22104686.3634
      -503.8234
  22327577.7114  -12852567.11547 -10008498.06545                  22327576.1864
      3424.7954
  21865685.0044  -18828112.54047 -14570156.69746                  21865682.4024
     -1511.0254
  20071816.0574  -27661481.50648 -21533750.79947                  20071813.1514
       378.9264
 06  6 29  3 21 59.9990000  0  8G15G18G21G29G26G 5G10G 9
  23688967.3694   -2493037.17446  -1932055.62543                  23688965.4774
      2539.3554
  23736403.1284   -5598379.87747  -4355820.99244                  23736400.9594
      3541.4214
  22287764.3744  -12790710.96047  -9959613.64445                  22287761.1114
      1417.8374
  22488983.2754  -10951764.67647  -8744386.57346                  22488981.2444
      -260.2104
  22107562.5654  -14161346.54447 -11281842.26346                  22107560.0904
      -502.7304
  22308039.9184  -12955242.85247 -10088505.10645                  22308037.1754
      3420.5084
  21874349.8774  -18782577.92847 -14534675.19746                  21874348.3104
     -1524.1214
  20069700.6394  -27672596.23248 -21542411.63147                  20069697.4214
       362.4374
 06  6 29  3 22 29.9990000  0  8G15G18G21G29G26G 5G10G 9
  23674509.9474   -2569010.35746  -1991255.52643                  23674508.3064
      2525.4544
  23716183.9524   -5704631.24046  -4438614.25144                  23716181.3264
      3542.1934
  22279718.0934  -12832993.32047  -9992560.93845                  22279714.6274
      1400.9964
  22490459.9044  -10944002.06448  -8738337.80846                  22490457.8924
      -257.1834
  22110428.3474  -14146288.92347 -11270109.06746                  22110424.8774
      -501.0894
  22288522.7704  -13057801.56247 -10168420.96245                  22288520.7904
      3416.7094
  21883087.2724  -18736663.49047 -14498897.75646                  21883085.1164
     -1536.7044
  20067677.4844  -27683228.98648 -21550696.90447                  20067674.3664
       346.5234
 06  6 29  3 22 59.9990000  0  8G15G18G21G29G26G 5G10G 9
  23660134.3604   -2644557.17846  -2050123.16743                  23660132.1194
      2511.0214
  23695961.6374   -5810898.08146  -4521419.53444                  23695959.6754
      3542.3054
  22271769.7054  -12874762.00147 -10025107.97245                  22271766.2364
      1383.5164
  22491921.2424  -10936320.59247  -8732352.25245                  22491919.5234
      -254.8634
  22113285.0604  -14131271.74947 -11258407.36946                  22113281.9194
      -500.0784
  22269030.9144  -13160235.41647 -10248239.52146                  22269028.2764
      3412.2314
  21891897.7904  -18690364.88547 -14462820.93846                  21891895.5044
     -1549.8244
  20065746.5284  -27693376.05548 -21558603.72247                  20065742.9844
       330.0054
 06  6 29  3 23 29.9990000  0  8G15G18G21G29G26G 5G10G 9
  23645842.2254   -2719667.89146  -2108651.04244                  23645839.5624
      2496.3234
  23675738.9504   -5917170.04947  -4604228.84444                  23675736.4454
      3542.4174
  22263921.3604  -12916008.46747 -10057248.10045                  22263917.5554
      1366.1384
  22493370.1004  -10928711.82747  -8726423.36246                  22493367.6254
      -252.4764
  22116137.0344  -14116286.83448 -11246730.83846                  22116134.4124
      -499.1654
  22249563.1724  -13262533.70047 -10327952.40945                  22249561.7704
      3407.5394
  21900783.0284  -18643674.86148 -14426439.12146                  21900780.3314
     -1562.9494
  20063909.1694  -27703031.30848 -21566127.30047                  20063905.7494
       313.4914
 06  6 29  3 23 59.9990000  0  8G15G18G21G29G26G 5G10G 9
  23631629.4864   -2794351.22246  -2166845.78543                  23631626.7634
      2482.5684
  23655513.7504   -6023455.29446  -4687048.47844                  23655511.2304
      3543.3594
  22256168.7294  -12956742.53647 -10088988.93545                  22256165.6354
      1349.4094
  22494802.0674  -10921185.24748  -8720558.52246                  22494799.7054
      -249.1804
  22118980.3584  -14101344.39948 -11235087.37646                  22118977.6104
      -497.1004
  22230121.0924  -13364703.67247 -10407565.33346                  22230119.5304
      3403.7354
  21909740.0334  -18596604.31648 -14389760.77246                  21909737.6114
     -1575.0494
  20062163.3154  -27712205.92148 -21573276.35347                  20062160.0214
       298.0814
 06  6 29  3 24 29.9990000  0  8G15G18G21G29G26G 5G10G 9
  23617500.3304   -2868601.13646  -2224702.90243                  23617497.4884
      2467.9204
  23635287.0774   -6129747.22447  -4769873.31044                  23635283.5324
      3543.3454
  22248516.8484  -12996959.58947 -10120326.92745                  22248513.8764
      1332.2074
  22496219.0394  -10913736.04547  -8714753.97245                  22496217.4914
      -246.8214
  22121817.1264  -14086440.09148 -11223473.65346                  22121814.1054
      -495.9864
  22210704.7634  -13466738.09647 -10487072.63445                  22210702.9324
      3399.0824
  21918770.1644  -18549149.33648 -14352782.87646                  21918768.2494
     -1588.0624
  20060509.7254  -27720897.19548 -21580048.78347                  20060505.9004
       281.8514
 06  6 29  3 24 59.9990000  0  8G15G18G21G29G26G 5G10G 9
  23603451.7474   -2942422.50046  -2282226.06844                  23603450.1604
      2453.6134
  23615058.2684   -6236050.33847  -4852706.94644                  23615054.7044
      3543.6334
  22240960.5904  -13036666.07047 -10151267.07045                  22240956.9914
      1315.1034
  22497621.0974  -10906369.74147  -8709014.03545                  22497619.3464
      -244.1024
  22124644.1814  -14071579.82448 -11211894.23646                  22124641.5904
      -494.4344
  22191313.7754  -13568640.30847 -10566476.91746                  22191311.4364
      3394.5314
  21927872.7434  -18501316.81148 -14315510.80946                  21927870.7244
     -1600.5274
  20058946.4534  -27729112.08148 -21586449.99847                  20058943.3414
       266.0744
 06  6 29  3 25 29.9990000  0  8G15G18G21G29G26G 5G10G 9
  23589486.7274   -3015813.64846  -2339413.94743                  23589484.6974
      2439.0874
  23594828.0784   -6342361.84147  -4935547.02444                  23594824.5234
      3543.8094
  22233501.8134  -13075861.67247 -10181809.11245                  22233498.5694
      1297.8814
  22499007.3914  -10899085.53247  -8703338.06246                  22499005.6984
      -241.5044
  22127464.1394  -14056763.29748 -11200348.88946                  22127461.5774
      -493.2864
  22171948.1424  -13670407.20947 -10645775.74646                  22171945.3124
      3389.9854
  21937045.9254  -18453107.15348 -14277944.86146                  21937044.4054
     -1613.2864
  20057473.5354  -27736852.17548 -21592481.24647                  20057469.9024
       250.0394
 06  6 29  3 25 59.9990000  0  8G15G18G21G29G26G 5G10G 9
  23575601.7094   -3088773.38246  -2396265.70543                  23575600.2074
      2424.7854
  23574596.7084   -6448680.15947  -5018392.47144                  23574592.8574
      3544.1364
  22226140.0724  -13114546.03147 -10211952.78545                  22226136.6624
      1281.0304
  22500378.8424  -10891882.85547  -8697725.62646                  22500376.1164
      -238.7604
  22130275.5964  -14041990.61748 -11188837.71046                  22130272.9344
      -491.6214
  22152608.9584  -13772036.15147 -10724967.10045                  22152606.4234
      3385.3814
  21946291.6304  -18404521.39547 -14240085.85746                  21946289.7594
     -1625.7764
  20056090.6864  -27744119.27848 -21598143.92247                  20056086.9764
       234.3904
 06  6 29  3 26 29.9990000  0  8G15G18G21G29G26G 5G10G 9
  23561802.2744   -3161293.14846  -2452774.58144                  23561799.9804
      2409.8734
  23554365.3964   -6554995.84147  -5101235.85544                  23554361.4874
      3543.6474
  22218877.6874  -13152712.40547 -10241692.82445                  22218873.6614
      1263.5844
  22501735.0784  -10884754.14648  -8692170.83245                  22501733.1134
      -236.5094
  22133079.0754  -14027254.36548 -11177354.93146                  22133076.9644
      -490.7424
  22133297.9134  -13873517.03147 -10804043.07346                  22133295.9404
      3380.1224
  21955610.6694  -18355553.08948 -14201928.75746                  21955608.9834
     -1638.7454
  20054798.8544  -27750907.56148 -21603433.49947                  20054794.9074
       218.1934
 06  6 29  3 26 59.9990000  0  8G15G18G21G29G26G 5G10G 9
  23548087.5734   -3233367.33746  -2508936.29744                  23548085.7104
      2395.1514
  23534135.1114   -6661302.72247  -5184072.34944                  23534132.4794
      3543.5114
  22211714.0064  -13190356.42247 -10271025.85345                  22211710.2834
      1246.1284
  22503078.1774  -10877694.63547  -8686669.94045                  22503075.4264
      -234.0334
  22135877.7734  -14012550.50648 -11165897.40046                  22135874.7084
      -489.4384
  22114015.8794  -13974842.95847 -10882998.31046                  22114014.3214
      3375.0734
  21965002.2844  -18306199.04748 -14163471.07646                  21965000.3154
     -1651.4454
  20053598.5184  -27757214.44748 -21608347.95647                  20053595.5044
       202.3344
 06  6 29  3 27 29.9990000  0  8G15G18G21G29G26G 5G10G 9
  23534455.0224   -3305002.25746  -2564755.68643                  23534453.8644
      2380.2784
  23513906.7374   -6767606.50247  -5266906.44144                  23513904.0784
      3543.1934
  22204648.7644  -13227485.85147 -10299957.87845                  22204645.0114
      1228.9114
  22504406.9524  -10870711.51047  -8681228.57446                  22504404.8034
      -231.7384
  22138667.8824  -13997886.60248 -11154470.98846                  22138665.0974
      -488.3014
  22094762.5534  -14076018.72747 -10961836.51246                  22094760.4694
      3369.8784
  21974465.7774  -18256467.52748 -14124719.27246                  21974463.9654
     -1664.1164
  20052488.4084  -27763048.94048 -21612894.31547                  20052485.1244
       186.4064
 06  6 29  3 27 59.9990000  0  8G15G18G21G29G26G 5G10G 9
  23520908.2014   -3376194.43346  -2620230.10944                  23520906.4764
      2365.8644
  23493678.9704   -6873902.86147  -5349734.72645                  23493676.1004
      3543.1594
  22197681.4634  -13264098.85547 -10328487.52245                  22197678.0464
      1212.0264
  22505722.2094  -10863801.80247  -8675844.42745                  22505720.1134
      -229.0434
  22141451.1424  -13983260.28448 -11143073.86946                  22141449.0774
      -486.8314
  22075539.7184  -14177039.47347 -11040553.96646                  22075537.0404
      3364.8294
  21984001.3854  -18206357.37547 -14085672.42346                  21983999.6154
     -1676.6064
  20051468.1874  -27768410.61649 -21617072.23747                  20051465.0344
       170.9724
 06  6 29  3 28 29.9990000  0  8G15G18G21G29G26G 5G10G 9
  23507444.2574   -3446948.36046  -2675363.02544                  23507442.0944
      2351.0164
  23473452.3604   -6980195.40447  -5432560.08345                  23473448.9294
      3542.9154
  22190811.2134  -13300201.30547 -10356619.31345                  22190808.1544
      1194.7854
  22507022.1504  -10856970.99947  -8670521.75046                  22507019.2344
      -226.4754
  22144226.0354  -13968677.54248 -11131710.69846                  22144223.9214
      -485.4254
  22056344.0574  -14277908.18347 -11119152.93246                  22056341.6714
      3359.5604
  21993607.9554  -18155875.19347 -14046335.69146                  21993605.8704
     -1689.0144
  20050536.6534  -27773307.24949 -21620887.80247                  20050533.5304
       155.3714
 06  6 29  3 28 59.9990000  0  8G15G18G21G29G26G 5G10G 9
  23494065.2794   -3517253.16246  -2730145.97544                  23494064.0594
      2336.2794
  23453228.4404   -7086472.03747  -5515373.01345                  23453225.6844
      3542.5054
  22184040.1084  -13335783.36947 -10384345.59445                  22184037.3534
      1177.6034
  22508308.7674  -10850208.47447  -8665252.25445                  22508306.1894
      -224.0384
  22146994.5384  -13954128.22548 -11120373.56946                  22146992.1414
      -484.2384
  22037180.7144  -14378612.26147 -11197623.59846                  22037179.4404
      3354.2284
  22003286.5574  -18105012.10047 -14006702.12646                  22003284.7574
     -1701.6024
  20049694.7884  -27777730.47948 -21624334.47747                  20049691.3704
       139.8054
 06  6 29  3 29 29.9990000  0  8G15G18G21G29G26G 5G10G 9
  23480772.0604   -3587110.79246  -2784580.50444                  23480770.4724
      2320.9724
  23433007.5634   -7192734.37347  -5598174.81145                  23433004.3374
      3541.7144
  22177367.7994  -13370848.57647 -10411669.15445                  22177364.1334
      1160.1174
  22509581.9494  -10843516.87347  -8660038.04745                  22509580.2294
      -222.0074
  22149756.8354  -13939615.44748 -11109064.94646                  22149754.0874
      -483.2474
  22018049.6834  -14479151.92848 -11275966.14546                  22018046.7854
      3348.3744
  22013037.6144  -18053772.16848 -13966774.93546                  22013035.8114
     -1714.4144
  20048942.3024  -27781684.73548 -21627415.70847                  20048938.2554
       123.8874
 06  6 29  3 29 59.9990000  0  8G15G18G21G29G26G 5G10G 9
  23467564.2074   -3656516.01346  -2838662.45644                  23467562.6864
      2306.0604
  23412790.0444   -7298975.83647  -5680960.33245                  23412786.9454
      3541.1384
  22170794.4064  -13405393.01347 -10438586.90445                  22170790.4774
      1142.9004
  22510842.5994  -10836891.56747  -8654875.48545                  22510841.1614
      -219.7714
  22152512.4034  -13925134.95748 -11097781.47546                  22152509.6974
      -482.0414
  21998949.6524  -14579520.40848 -11354175.29946                  21998947.3874
      3342.8714
  22022860.4394  -18002152.31948 -13926551.68046                  22022858.9534
     -1726.8654
  20048279.4674  -27785167.94548 -21630129.89647                  20048276.1284
       108.3944
 06  6 29  3 30 29.9990000  0  8G15G18G21G29G26G 5G10G 9
  23454441.9724   -3725470.02746  -2892392.82044                  23454441.3674
      2291.1624
  23392576.8864   -7405197.05247  -5763730.07745                  23392573.8434
      3540.4644
  22164319.3594  -13439419.53547 -10465101.10545                  22164315.2864
      1125.8114
  22512090.4484  -10830334.49347  -8649766.09945                  22512088.4604
      -217.3244
  22155260.9834  -13910689.39648 -11086525.20546                  22155258.7064
      -480.8554
  21979882.1194  -14679717.55348 -11432250.96646                  21979880.1624
      3337.1484
  22032755.0484  -17950156.07648 -13886035.16646                  22032752.8804
     -1739.2874
  20047705.4084  -27788184.62148 -21632480.56347                  20047702.4364
        92.9934
 06  6 29  3 30 59.9990000  0  8G15G18G21G29G26G 5G10G 9
  23441406.6254   -3793979.76346  -2945777.02344                  23441404.7914
      2276.0844
  23372366.2664   -7511404.31947  -5846488.94045                  23372363.0044
      3539.8544
  22157940.6494  -13472936.73447 -10491218.39545                  22157938.2064
      1108.6384
  22513324.6834  -10823853.35547  -8644715.86345                  22513321.7974
      -214.9274
  22158001.2094  -13896286.94348 -11075302.52746                  22157999.2994
      -479.4824
  21960847.0494  -14779748.79048 -11510197.35346                  21960844.7354
      3331.5094
  22042719.3874  -17897792.82548 -13845232.65946                  22042717.0174
     -1751.7044
  20047218.0914  -27790744.64948 -21634475.38447                  20047214.7974
        77.5834
 06  6 29  3 31 29.9990000  0  8G15G18G21G29G26G 5G10G 9
  23428456.0144   -3862034.71546  -2998806.84844                  23428454.8384
      2260.7084
  23352160.8944   -7617585.72847  -5929227.66645                  23352157.7224
      3538.7114
  22151661.2844  -13505935.31147 -10516931.57645                  22151657.5894
      1091.0554
  22514545.0734  -10817437.92248  -8639716.86345                  22514542.5364
      -212.9394
  22160736.1114  -13881917.51048 -11064105.58646                  22160734.0764
      -478.6474
  21941845.9364  -14879601.62848 -11588004.73246                  21941843.6254
      3325.2254
  22052755.4774  -17845053.74748 -13804137.28846                  22052753.2904
     -1764.3514
  20046819.5424  -27792840.04449 -21636108.17547                  20046816.4184
        61.9294
 06  6 29  3 31 59.9990000  0  8G15G18G21G29G26G 5G10G 9
  23415592.6624   -3929631.76446  -3051479.87144                  23415591.0684
      2245.5714
  23331960.9344   -7723737.06547  -6011942.94245                  23331957.3684
      3537.7734
  22145481.2354  -13538413.49147 -10542239.24945                  22145478.0074
      1073.8774
  22515753.9384  -10811085.62947  -8634767.03945                  22515750.8884
      -210.8154
  22163464.3764  -13867579.32748 -11052932.98446                  22163462.6514
      -477.5204
  21922878.9314  -14979271.50748 -11665669.53046                  21922877.0764
      3319.2434
  22062863.1174  -17791937.94048 -13762748.37546                  22062861.1324
     -1776.8804
  20046509.5354  -27794470.47148 -21637378.64547                  20046506.2244
        46.5534
 06  6 29  3 32 29.9990000  0  8G15G18G21G29G26G 5G10G 9
  23402816.5514   -3996768.76246  -3103794.37844                  23402814.9234
      2230.5034
  23311767.3664   -7829855.49347  -6094632.57645                  23311763.8854
      3536.9484
  22139399.8734  -13570370.67147 -10567140.97445                  22139396.4154
      1056.7434
  22516951.1214  -10804794.71947  -8629865.02645                  22516948.0684
      -208.5304
  22166187.4734  -13853271.09148 -11041783.72546                  22166184.4684
      -476.2604
  21903947.9484  -15078754.48648 -11743188.70546                  21903946.2734
      3313.1544
  22073042.0684  -17738445.47748 -13721065.96446                  22073040.1354
     -1789.1214
  20046287.1864  -27795636.96748 -21638287.60347                  20046284.1424
        31.3134
 06  6 29  3 32 59.9990000  0  8G15G18G21G29G26G 5G10G 9
  23390126.1834   -4063451.90546  -3155755.27744                  23390125.7284
      2215.1124
  23291578.4864   -7935945.93547  -6177300.41845                  23291575.6894
      3535.7624
  22133416.1104  -13601814.53147 -10591642.71945                  22133412.9754
      1039.4434
  22518135.2534  -10798572.10348  -8625016.26745                  22518132.2664
      -206.4114
  22168902.8024  -13839000.07948 -11030663.48446                  22168900.5694
      -475.1564
  21885052.1014  -15178055.16348 -11820565.82446                  21885049.5084
      3306.9044
  22083291.7084  -17684584.53448 -13679096.41646                  22083289.6324
     -1801.5824
  20046152.0074  -27796348.39848 -21638841.97147                  20046148.6774
        16.0994
 06  6 29  3 33 29.9990000  0  8G15G18G21G29G26G 5G10G 9
  23377523.8314   -4129678.61846  -3207360.46044                  23377522.8174
      2199.8784
  23271396.3254   -8042005.02047  -6259943.84145                  23271393.3684
      3534.6394
  22127530.6194  -13632744.23847 -10615743.81645                  22127527.5874
      1022.4074
  22519306.7704  -10792415.52948  -8620218.95745                  22519304.4224
      -204.1994
  22171612.5994  -13824764.44848 -11019570.80946                  22171609.5754
      -474.0534
  21866191.3144  -15277169.18748 -11897797.49846                  21866188.6074
      3300.5914
  22093611.5994  -17630354.99648 -13636839.67146                  22093609.1044
     -1813.8824
  20046102.8394  -27796605.82749 -21639042.57447                  20046099.4694
         1.0014
 06  6 29  3 33 59.9990000  0  8G15G18G21G29G26G 5G10G 9
  23365008.4244   -4195447.86146  -3258609.22244                  23365008.2054
      2184.6784
  23251220.1904   -8148030.12047  -6342560.74745                  23251217.2334
      3533.6724
  22121742.3434  -13663159.94047 -10639444.38045                  22121739.7164
      1005.3174
  22520465.9964  -10786324.18547  -8615472.46345                  22520463.4284
      -201.8264
  22174314.6984  -13810564.17148 -11008505.67746                  22174312.0484
      -472.6224
  21847366.3684  -15376093.75148 -11974881.54846                  21847363.9894
      3294.4584
  22104000.3194  -17575757.80648 -13594296.42046                  22103998.6854
     -1825.9284
  20046140.3924  -27796410.06648 -21638890.03447                  20046137.5634
       -14.0094
 06  6 29  3 34 29.9990000  0  8G15G18G21G29G26G 5G10G 9
  23352579.9684   -4260761.64847  -3309503.08844                  23352579.5354
      2169.5954
  23231050.1254   -8254022.41247  -6425152.10145                  23231046.9064
      3532.5154
  22116051.9384  -13693065.15847 -10662747.13645                  22116048.9164
       988.2864
  22521612.2754  -10780300.58547  -8610778.75645                  22521610.3084
      -199.7074
  22177010.1914  -13796401.92948 -10997470.21246                  22177007.1374
      -471.4894
  21828577.4414  -15474829.09948 -12051818.16546                  21828575.5564
      3288.0624
  22114459.4834  -17520797.16948 -13551469.97846                  22114457.2184
     -1838.0274
  20046262.8634  -27795766.24448 -21638388.36547                  20046259.8814
       -28.9114
 06  6 29  3 34 59.9990000  0  8G15G18G21G29G26G 5G10G 9
  23340239.4674   -4325614.02547  -3360037.43644                  23340237.7374
      2154.0144
  23210888.2014   -8359975.23647  -6507712.72145                  23210885.0284
      3530.9764
  22110460.1764  -13722455.57647 -10685648.81545                  22110456.1294
       971.0304
  22522746.3424  -10774339.20248  -8606133.53045                  22522744.5594
      -197.7544
  22179697.7864  -13782272.73048 -10986460.47846                  22179695.8234
      -470.4744
  21809826.9974  -15573367.60848 -12128601.38846                  21809823.4954
      3281.3094
  22124987.7094  -17465469.26348 -13508357.35146                  22124985.7934
     -1850.4444
  20046471.1994  -27794671.41948 -21637535.27047                  20046467.8764
       -44.0334
 06  6 29  3 35 29.9990000  0  8G15G18G21G29G26G 5G10G 9
  23327985.7384   -4390003.30447  -3410210.90044                  23327985.5554
      2138.4914
  23190733.6244   -8465885.00047  -6590239.78845                  23190730.8794
      3529.6194
  22104963.7144  -13751330.70347 -10708148.93145                  22104960.8444
       953.8044
  22523869.9534  -10768438.53047  -8601535.61445                  22523867.0124
      -195.6794
  22182381.1934  -13768175.64648 -10975475.74846                  22182378.5374
      -469.3654
  21791113.3204  -15671705.59848 -12205228.34946                  21791111.3974
      3274.5614
  22135586.5324  -17409774.42848 -13464958.80746                  22135584.2734
     -1862.6564
  20046764.8364  -27793126.82248 -21636331.68447                  20046761.6504
       -58.9794
 06  6 29  3 35 59.9990000  0  8G15G18G21G29G26G 5G10G 9
  23315822.2854   -4453926.43947  -3460021.14844                  23315820.9544
      2123.1014
  23170589.9194   -8571747.57947  -6672730.06545                  23170585.9484
      3527.8864
  22099568.3974  -13779689.12947 -10730246.43545                  22099565.2734
       936.5234
  22524981.4944  -10762595.74748  -8596982.82145                  22524979.3724
      -193.9994
  22185058.0204  -13754108.28148 -10964514.17946                  22185055.7474
      -468.5254
  21772439.2314  -15769838.26248 -12281695.32346                  21772436.5774
      3267.5194
  22146254.7024  -17353711.63248 -13421273.53246                  22146252.4184
     -1875.0154
  20047144.4714  -27791132.54848 -21634777.72747                  20047141.4914
       -74.0284
 06  6 29  3 36 29.9990000  0  8G15G18G21G29G26G 5G10G 9
  23303747.2014   -4517376.90947  -3509463.10344                  23303746.5594
      2107.1054
  23150454.7524   -8677555.06547  -6755177.43345                  23150452.1744
      3526.0164
  22094270.4474  -13807525.82547 -10751937.39245                  22094267.8794
       919.1464
  22526083.5724  -10756804.67447  -8592470.32845                  22526080.8154
      -192.2464
  22187730.1464  -13740064.91548 -10953571.33646                  22187728.0894
      -467.7344
  21753805.8394  -15867757.31148 -12357995.83846                  21753803.1504
      3260.3814
  22156994.1904  -17297276.48048 -13377298.13946                  22156992.2354
     -1887.3884
  20047610.1574  -27788684.93448 -21632870.50047                  20047606.8244
       -89.2484
 06  6 29  3 36 59.9990000  0  9G15G18G21G29G26G 5G10G 9G30
  23291761.9354   -4580362.19947  -3558542.53844                  23291761.3024
      2091.4944
  23130330.0104   -8783313.85147  -6837586.86045                  23130326.5024
      3524.3114
  22089071.7314  -13834849.61447 -10773228.69045                  22089068.1254
       902.0954
  22527174.4004  -10751072.85748  -8588003.99645                  22527171.3184
      -190.2784
  22190396.5174  -13726053.57148 -10942653.44446                  22190394.0334
      -466.6854
  21735211.7384  -15965468.14748 -12434134.11346                  21735209.6934
      3253.3354
  22167802.4274  -17240478.62148 -13333040.08346                  22167800.2144
     -1899.4874
  20048160.2354  -27785793.68548 -21630617.58547                  20048156.9144
      -103.9114
  24616883.8724    -103019.57245
      3729.2334
 06  6 29  3 37 29.9990000  0  9G15G18G21G29G26G 5G10G 9G30
  23279865.5284   -4642881.54247  -3607258.92144                  23279864.2364
      2076.4014
  23110214.1204   -8889021.70547  -6919956.61545                  23110211.3234
      3522.9694
  22083969.3114  -13861661.59747 -10794121.16745                  22083965.8454
       885.4834
  22528253.3624  -10745399.85947  -8583583.51045                  22528251.1504
      -187.9154
  22193056.3464  -13712074.32748 -10931760.55746                  22193053.7504
      -465.1374
  21716658.1834  -16062968.22948 -12510108.15946                  21716655.9094
      3246.8214
  22178679.8034  -17183319.34348 -13288500.41046                  22178677.2654
     -1911.0164
  20048794.5334  -27782461.31148 -21628020.93247                  20048791.2094
      -118.0864
  24595584.3904    -214952.95045
      3733.2424
 06  6 29  3 37 59.9990000  0  9G15G18G21G29G26G 5G10G 9G30
  23268055.7154   -4704939.86046  -3655616.06844                  23268054.5284
      2060.6794
  23090108.0544   -8994682.43647  -7002289.63045                  23090103.7534
      3521.0994
  22078963.2744  -13887968.08847 -10814619.74145                  22078960.0514
       868.2864
  22529321.0784  -10739790.63247  -8579212.71145                  22529318.8954
      -186.0554
  22195709.3994  -13698132.58548 -10920896.87246                  22195707.4504
      -464.3024
  21698144.1254  -16160260.61248 -12585920.36046                  21698142.4164
      3239.3754
  22189623.8234  -17125805.88748 -13243684.75246                  22189622.0324
     -1923.1894
  20049511.3244  -27778695.38048 -21625086.44047                  20049507.8994
      -132.8864
  24574263.0254    -327001.76546   -238657.44542                  24574261.8304
      3736.8464
 06  6 29  3 38 29.9990000  0  9G15G18G21G29G26G 5G10G 9G30
  23256336.0874   -4766528.48047  -3703607.25444                  23256334.6024
      2044.9664
  23070012.4574   -9100285.65347  -7084577.84845                  23070008.7114
      3518.9554
  22074055.2294  -13913761.94947 -10834718.86945                  22074051.4084
       851.2014
  22530378.2874  -10734236.65847  -8574884.98745                  22530375.4834
      -184.2924
  22198357.1394  -13684220.36248 -10910056.23346                  22198354.6854
      -463.3114
  21679671.4714  -16257334.71348 -12661562.48446                  21679669.3104
      3232.0754
  22200637.3134  -17067931.28748 -13198587.70446                  22200634.8064
     -1935.2834
  20050311.0214  -27774490.42348 -21621809.84747                  20050308.3224
      -147.5684
  24552921.9824    -439156.76446   -326050.85043                  24552920.5444
      3740.1274
 06  6 29  3 38 59.9990000  0  9G15G18G21G29G26G 5G10G 9G30
  23244706.0914   -4827642.04747  -3751228.21844                  23244705.1234
      2029.4584
  23049928.7184   -9205825.06947  -7166816.33445                  23049925.4234
      3517.2414
  22069244.9184  -13939039.34147 -10854415.54745                  22069241.4944
       834.2724
  22531425.5914  -10728732.91347  -8570596.38345                  22531423.2284
      -182.3974
  22200999.2074  -13670333.01048 -10899234.95746                  22200997.7094
      -462.2804
  21661241.7524  -16354183.30548 -12737028.88046                  21661239.5374
      3224.7714
  22211719.5194  -17009692.60148 -13153206.93346                  22211717.5734
     -1947.0314
  20051195.1904  -27769843.78948 -21618189.09747                  20051192.1594
      -161.9634
  24531559.2994    -551411.22546   -413521.78543                  24531558.4174
      3743.6234
 06  6 29  3 39 29.9990000  0  9G15G18G21G29G26G 5G10G 9G30
  23233166.1694   -4888287.81547  -3798484.69344                  23233165.8854
      2013.7504
  23029856.5554   -9311306.17347  -7249009.40345                  23029852.5514
      3515.0004
  22064530.7574  -13963809.35947 -10873716.87145                  22064527.9714
       817.2614
  22532461.8284  -10723286.71947  -8566352.60045                  22532458.7374
      -180.6594
  22203635.8614  -13656478.26448 -10888439.06146                  22203633.9114
      -461.3234
  21642853.9554  -16450811.63248 -12812323.64046                  21642851.1004
      3217.2124
  22222869.0944  -16951099.31448 -13107549.84746                  22222867.4864
     -1958.9894
  20052162.0224  -27764765.42848 -21614231.92747                  20052158.3704
      -176.4504
  24510177.6654    -663771.36346   -501075.08642                  24510176.5364
      3747.0224
 06  6 29  3 39 59.9990000  0  9G15G18G21G29G26G 5G10G 9G30
  23221715.1114   -4948460.99346  -3845372.89344                  23221714.7044
      1997.8274
  23009796.2354   -9416723.01147  -7331152.39545                  23009792.2814
      3512.6954
  22059915.4194  -13988068.52947 -10892620.12645                  22059911.4884
       800.0644
  22533487.6464  -10717893.29947  -8562150.01045                  22533485.5824
      -178.9214
  22206267.0814  -13642651.85848 -10877665.27346                  22206264.7264
      -460.4644
  21624509.2484  -16547212.97748 -12887441.55646                  21624506.8204
      3209.5314
  22234087.7054  -16892148.68948 -13061614.34046                  22234085.6094
     -1970.9914
  20053210.7584  -27759253.49848 -21609936.93147                  20053207.7114
      -190.9864
  24488777.0324    -776231.02545   -588705.86742                  24488775.9084
      3750.2444
 06  6 29  3 40 29.9990000  0  9G15G18G21G29G26G 5G10G 9G30
  23210354.6884   -5008162.70847  -3891893.67744                  23210353.2984
      1981.9344
  22989748.1304   -9522075.12347  -7413244.95845                  22989744.7344
      3510.3714
  22055394.8164  -14011819.27847 -10911127.21945                  22055391.6504
       782.9054
  22534503.8284  -10712553.76947  -8557989.35645                  22534502.0454
      -177.2804
  22208892.4314  -13628855.36047 -10866914.79645                  22208890.0034
      -459.6884
  21606208.0844  -16643386.35848 -12962381.80446                  21606206.0774
      3201.6994
  22245373.2584  -16832843.55048 -13015402.56146                  22245371.6484
     -1982.9834
  20054341.1554  -27753311.69348 -21605306.93447                  20054338.5914
      -205.4154
  24467358.1814    -888789.65545   -676413.86143                  24467357.4494
      3753.2474
 06  6 29  3 40 59.9990000  0  9G15G18G21G29G26G 5G10G 9G30
  23199084.3034   -5067391.72547  -3938046.19444                  23199083.0504
      1966.2944
  22969713.2074   -9627359.75747  -7495284.91245                  22969709.8774
      3508.2374
  22050972.5784  -14035062.24247 -10929238.63945                  22050969.4204
       766.1914
  22535510.7544  -10707266.94447  -8553869.78445                  22535507.9794
      -175.4254
  22211512.5224  -13615088.01047 -10856187.01546                  22211510.4474
      -458.5404
  21587951.0714  -16739328.67448 -13037142.02546                  21587948.7704
      3194.1114
  22256725.2964  -16773185.09248 -12968915.49646                  22256723.7114
     -1994.6634
  20055553.1834  -27746941.94148 -21600343.49447                  20055550.3084
      -219.4924
  24445920.4814   -1001445.53846   -764197.60743                  24445919.4694
      3756.6414
 06  6 29  3 41 29.9990000  0  9G15G18G21G29G26G 5G10G 9G30
  23187903.7154   -5126143.75246  -3983827.01044                  23187902.7754
      1950.2494
  22949692.0824   -9732570.90847  -7577267.64045                  22949688.8484
      3505.6494
  22046646.3494  -14057794.51847 -10946952.12345                  22046642.9894
       749.1024
  22536507.4714  -10702028.25448  -8549787.75245                  22536504.4164
      -174.0094
  22214127.9144  -13601345.83647 -10845478.86246                  22214125.3604
      -457.8324
  21569739.1304  -16835033.32348 -13111717.04746                  21569737.2044
      3186.0114
  22268146.6604  -16713170.60348 -12922150.99346                  22268144.3494
     -2006.5724
  20056847.3884  -27740142.68448 -21595045.37947                  20056844.5214
      -233.9704
  24424465.0494   -1114192.24446   -852052.01343                  24424464.4324
      3759.6924
 06  6 29  3 41 59.9990000  0  9G15G18G21G29G26G 5G10G 9G30
  23176814.6674   -5184417.56147  -4029235.13544                  23176813.4434
      1934.4384
  22929685.3474   -9837705.17647  -7659190.42445                  22929682.5154
      3503.1444
  22042417.5094  -14080016.16747 -10964267.68745                  22042414.8004
       732.2024
  22537494.8234  -10696836.42647  -8545742.18745                  22537492.7024
      -172.2514
  22216738.2234  -13587628.02447 -10834789.69746                  22216736.0984
      -456.9194
  21551572.7304  -16930497.07148 -13186104.34246                  21551570.4184
      3178.0864
  22279633.4664  -16652801.14548 -12875109.86646                  22279632.5574
     -2018.2424
  20058222.5214  -27732915.05148 -21589413.45447                  20058219.6454
      -248.0524
  24402992.5864   -1227027.27146   -939975.45843                  24402992.3534
      3762.5494
 06  6 29  3 42 29.9990000  0  9G15G18G21G29G26G 5G10G 9G30
  23165815.6914   -5242214.62446  -4074271.80144                  23165815.2514
      1918.6964
  22909694.2354   -9942763.26247  -7741053.86345                  22909691.0304
      3500.8304
  22038286.1054  -14101730.44347 -10981187.91345                  22038282.4854
       715.4984
  22538474.2894  -10691692.88047  -8541734.28245                  22538472.0364
      -170.4884
  22219343.0584  -13573936.39847 -10824120.93545                  22219340.8424
      -455.8204
  21533452.4794  -17025719.30848 -13260303.47446                  21533450.1004
      3170.1224
  22291188.6324  -16592080.19548 -12827794.87746                  22291187.0814
     -2029.7854
  20059678.6434  -27725263.48448 -21583451.19947                  20059675.7364
      -261.9194
  24381504.1314   -1339950.91846  -1027967.76243                  24381503.7134
      3765.7424
 06  6 29  3 42 59.9990000  0  9G15G18G21G29G26G 5G10G 9G30
  23154908.2714   -5299535.05747  -4118937.06844                  23154907.2494
      1902.8034
  22889716.6574  -10047743.70347  -7822856.77345                  22889713.2374
      3498.1004
  22034250.1614  -14122938.92147 -10997714.02845                  22034246.0464
       698.6234
  22539442.5704  -10686597.38647  -8537763.79045                  22539441.1244
      -168.9114
  22221944.0534  -13560271.20147 -10813472.78746                  22221941.7924
      -454.9904
  21515378.6214  -17120698.00548 -13334312.83346                  21515376.3604
      3161.9824
  22302810.3434  -16531009.96748 -12780207.72746                  22302807.6554
     -2041.3434
  20061214.8784  -27717190.95348 -21577160.90247                  20061212.0714
      -275.9814
  24359999.3924   -1452961.99346  -1116028.22643                  24359997.8284
      3768.6084
 06  6 29  3 43 29.9990000  0  9G15G18G21G29G26G 5G10G 9G30
  23144092.5184   -5356374.52146  -4163227.57844                  23144090.6654
      1886.7874
  22869755.9874  -10152639.85847  -7904594.03245                  22869752.0564
      3495.2734
  22030310.9424  -14143638.75447 -11013843.74346                  22030307.6544
       681.6214
  22540405.3024  -10681545.63948  -8533827.40145                  22540402.9134
      -167.4664
  22224539.6644  -13546628.55047 -10802842.18545                  22224537.8824
      -454.1944
  21497352.2684  -17215426.61548 -13408127.31246                  21497349.7984
      3153.6384
  22314498.7724  -16469588.17948 -12732346.63446                  22314496.1594
     -2053.0714
  20062831.1884  -27708696.07748 -21570541.51747                  20062828.4024
      -290.0204
  24338477.9064   -1566054.24846  -1204151.98743                  24338477.0374
      3771.2164
 06  6 29  3 43 59.9990000  0  9G15G18G21G29G26G 5G10G 9G30
  23133367.3434   -5412738.54246  -4207147.58244                  23133364.9924
      1870.8064
  22849809.6424  -10257455.54347  -7986268.55345                  22849806.8904
      3492.4274
  22026467.4954  -14163836.79347 -11029582.49546                  22026463.8324
       664.7904
  22541357.1794  -10676542.73647  -8529929.06645                  22541354.3914
      -166.0554
  22227130.5414  -13533014.23447 -10792233.65945                  22227128.5504
      -453.3944
  21479373.5884  -17309908.50648 -13481749.54846                  21479370.8984
      3145.1074
  22326252.3344  -16407822.25848 -12684217.38046                  22326249.6644
     -2064.7364
  20064526.4994  -27699786.70748 -21563599.14847                  20064523.6494
      -303.9504
  24316941.7054   -1679231.74546  -1292342.15943                  24316941.0394
      3773.8134
 06  6 29  3 44 29.9990000  0  9G15G18G21G29G26G 5G10G 9G30
  23122732.3404   -5468622.03646  -4250693.13944                  23122731.1304
      1854.8244
  22829880.3684  -10362184.38247  -8067875.41545                  22829877.2844
      3489.5564
  22022719.5734  -14183530.11648 -11044927.94445                  22022716.2524
       648.1254
  22542301.2874  -10671583.72248  -8526064.94446                  22542298.8334
      -164.4874
  22229716.8704  -13519423.37947 -10781643.40945                  22229714.7394
      -452.5394
  21461442.3034  -17404136.65748 -13555174.06646                  21461439.3294
      3136.7824
  22338071.7534  -16345709.47148 -12635817.83946                  22338069.5804
     -2076.1234
  20066301.4104  -27690461.09848 -21556332.43147                  20066298.9384
      -317.6174
  24295389.3844   -1792488.33546  -1380593.95843                  24295389.1124
      3776.6704
 06  6 29  3 44 59.9990000  0  9G15G18G21G29G26G 5G10G 9G30
  23112188.4974   -5524028.24347  -4293866.78044                  23112187.3634
      1838.8724
  22809967.7574  -10466827.73047  -8149415.64845                  22809964.1634
      3486.6264
  22019067.7304  -14202723.31347 -11059883.69046                  22019064.5144
       631.3624
  22543235.3524  -10666671.31747  -8522237.13345                  22543233.5054
      -163.1454
  22232297.9984  -13505859.34848 -10771074.06945                  22232296.5124
      -451.7824
  21443559.2414  -17498111.80048 -13628401.42846                  21443556.8904
      3128.1494
  22349956.7574  -16283254.54648 -12587151.69946                  22349954.8834
     -2087.7004
  20068153.8554  -27680724.78548 -21548745.69747                  20068151.1804
      -331.4554
  24273822.0834   -1905825.14346  -1468908.29443                  24273821.2384
      3779.1554
 06  6 29  3 45 29.9990000  0  9G15G18G21G29G26G 5G10G 9G30
  23101736.9574   -5578953.01847  -4336665.33144                  23101735.9354
      1822.5884
  22790071.9194  -10571379.60447  -8230884.62745                  22790068.5434
      3483.3164
  22015510.9284  -14221413.97147 -11074447.86346                  22015507.0694
       614.4634
  22544162.5204  -10661801.14147  -8518442.24445                  22544159.9244
      -161.7634
  22234874.7764  -13492318.22347 -10760522.57345                  22234873.0574
      -451.1284
  21425725.6664  -17591827.85148 -13701426.91246                  21425723.0184
      3119.3214
  22361907.1404  -16220455.47848 -12538217.39446                  22361904.5734
     -2099.1554
  20070085.1424  -27670576.59847 -21540838.01647                  20070082.2724
      -345.2934
  24252240.4064   -2019236.75446  -1557280.90243                  24252239.4814
      3781.4504
 06  6 29  3 45 59.9990000  0  9G15G18G21G29G26G 5G10G 9G30
  23091377.3744   -5633389.87946  -4379083.65144                  23091376.4924
      1806.2354
  22770195.1014  -10675831.75247  -8312275.88745                  22770191.8994
      3479.8144
  22012051.1404  -14239596.82047 -11088616.31546                  22012047.8524
       597.5494
  22545081.6584  -10656966.56247  -8514675.06745                  22545079.9374
      -160.6984
  22237448.5624  -13478793.84347 -10749984.11745                  22237446.6814
      -450.6934
  21407943.7414  -17685276.12448 -13774243.73146                  21407940.4504
      3110.2934
  22373923.5534  -16157307.96547 -12489011.56846                  22373921.3674
     -2110.8064
  20072095.1304  -27660012.66648 -21532606.37747                  20072092.5464
      -359.1894
  24230646.1354   -2132715.39546  -1645705.74543                  24230645.2014
      3783.5214
 06  6 29  3 46 29.9990000  0  9G15G18G21G29G26G 5G10G 9G30
  23081111.1334   -5687342.78747  -4421124.84644                  23081109.8974
      1790.5374
  22750337.2034  -10780186.10047  -8393590.91445                  22750334.1074
      3476.9194
  22008686.2544  -14257277.39747 -11102393.39946                  22008683.0074
       581.0404
  22545994.6974  -10652171.16947  -8510938.44645                  22545992.7114
      -159.0924
  22240017.9434  -13465290.04547 -10739461.70045                  22240016.4114
      -449.5364
  21390211.2324  -17778458.16548 -13846853.08546                  21390209.0274
      3101.8214
  22386005.4704  -16093817.76548 -12439538.71746                  22386003.3534
     -2121.8754
  20074183.7854  -27649039.39348 -21524055.77247                  20074180.7084
      -372.4324
  24209039.0234   -2246263.10346  -1734184.34343                  24209037.8094
      3786.3774
 06  6 29  3 46 59.9990000  0  9G15G18G21G29G26G 5G10G 9G30
  23070935.1264   -5740816.51047  -4462792.70444                  23070933.6104
      1774.2684
  22730497.2904  -10884445.71547  -8474832.14345                  22730494.2094
      3473.5844
  22005416.3114  -14274462.19347 -11115784.16445                  22005413.0254
       564.4094
  22546899.6314  -10647418.97947  -8507235.43745                  22546898.6594
      -157.8324
  22242582.9934  -13451811.64847 -10728959.08345                  22242581.2064
      -449.0534
  21372529.8074  -17871376.41148 -13919256.88946                  21372526.8224
      3092.5784
  22398151.2304  -16029991.64048 -12389804.12246                  22398148.5274
     -2133.3064
  20076348.2944  -27637664.57648 -21515192.28047                  20076344.7504
      -386.0214
  24187416.7864   -2359882.38746  -1822718.78343                  24187416.4594
      3788.4134
 06  6 29  3 47 29.9990000  0  9G15G18G21G29G26G 5G10G 9G30
  23060853.4604   -5793796.60847  -4504075.88844                  23060851.9074
      1757.9104
  22710678.4174  -10988594.04547  -8555986.64345                  22710675.4894
      3469.8244
  22002242.6074  -14291138.32847 -11128778.56746                  22002239.9834
       547.5244
  22547797.9594  -10642695.42047  -8503554.75445                  22547795.1884
      -156.9294
  22245146.3584  -13438344.25547 -10718465.03146                  22245143.6044
      -448.7264
  21354900.9124  -17964014.22748 -13991442.17846                  21354897.9714
      3083.2864
  22410363.4004  -15965817.17648 -12339798.09046                  22410360.9674
     -2144.8634
  20078591.1274  -27625876.23348 -21506006.56447                  20078588.8154
      -399.7274
  24165786.0134   -2473557.77646  -1911296.92243                  24165784.2704
      3790.1174
 06  6 29  3 47 59.9990000  0  9G15G18G21G29G26G 5G10G 9G30
  23050865.1014   -5846285.30047  -4544976.18744                  23050864.6184
      1741.4064
  22690880.4134  -11092631.70447  -8637054.91545                  22690877.6494
      3466.0164
  21999165.4364  -14307309.44747 -11141379.44146                  21999162.5684
       530.6154
  22548691.1644  -10638002.26147  -8499897.80445                  22548688.8454
      -155.9234
  22247706.4004  -13424890.18247 -10707981.34346                  22247704.6594
      -448.3154
  21337326.1294  -18056371.55048 -14063408.90146                  21337323.0944
      3073.8384
  22422640.3934  -15901298.65648 -12289523.95546                  22422638.5564
     -2156.3094
  20080912.2794  -27613679.42748 -21496502.57947                  20080909.6864
      -413.3354
  24144142.8094   -2587289.61746  -1999919.02943                  24144142.0274
      3791.8124
 06  6 29  3 48 29.9990000  0  9G15G18G21G29G26G 5G10G 9G30
  23040969.0914   -5898290.96747  -4585500.11144                  23040967.7554
      1725.6844
  22671102.6234  -11196564.66847  -8718041.60145                  22671100.1974
      3462.8914
  21996182.8854  -14322985.65647 -11153594.68746                  21996179.2624
       514.4974
  22549575.9624  -10633347.34147  -8496270.61345                  22549575.6074
      -154.3994
  22250261.9754  -13411457.80447 -10697514.57445                  22250259.8664
      -447.2854
  21319803.1134  -18148454.39448 -14135161.74246                  21319800.6274
      3064.9224
  22434981.6944  -15836446.24048 -12238989.62245                  22434979.6264
     -2167.1194
  20083308.9894  -27601085.07848 -21486688.82547                  20083305.8534
      -426.2164
  24122489.0174   -2701084.20947  -2088590.07944                  24122488.3034
      3794.3804
 06  6 29  3 48 59.9990000  0  9G15G18G21G29G26G 5G10G 9G30
  23031163.7884   -5949814.99147  -4625648.69644                  23031162.7804
      1709.4244
  22651345.4224  -11300392.45447  -8798946.34045                  22651341.8254
      3459.2284
  21993293.4744  -14338169.77847 -11165426.46846                  21993289.3014
       497.9544
  22550455.3704  -10628731.67047  -8492674.00745                  22550452.6464
      -153.1884
  22252814.0754  -13398048.51148 -10687065.80145                  22252811.4864
      -446.5824
  21302332.3384  -18240261.89948 -14206700.02846                  21302330.4854
      3055.6544
  22447385.5424  -15771263.18047 -12188197.68045                  22447383.9504
     -2178.3014
  20085780.2844  -27588097.48148 -21476568.62947                  20085777.5764
      -439.4534
  24100822.2964   -2814941.48746  -2177309.94943                  24100821.9804
      3796.3184
 06  6 29  3 49 29.9990000  0  9G15G18G21G29G26G 5G10G 9G30
  23021452.8534   -6000846.97347  -4665413.92744                  23021451.1554
      1692.7054
  22631609.4684  -11404102.57647  -8879759.39845                  22631606.6924
      3454.9024
  21990498.9564  -14352852.91547 -11176867.88446                  21990495.5894
       481.0254
  22551328.5224  -10624144.20047  -8489099.37745                  22551326.2914
      -152.5004
  22255363.3584  -13384651.65247 -10676626.69345                  22255361.2574
      -446.4794
  21284917.1884  -18331781.16748 -14278013.71646                  21284915.0374
      3045.6894
  22459854.0724  -15705741.07147 -12137141.51945                  22459852.0544
     -2189.8104
  20088327.9964  -27574708.33848 -21466135.52647                  20088325.2034
      -453.0624
  24079146.5344   -2928849.04447  -2266069.00844                  24079145.6294
      3797.5734
 06  6 29  3 49 59.9990000  0  9G15G18G21G29G26G 5G10G 9G30
  23011834.9364   -6051389.88047  -4704798.04644                  23011833.8554
      1676.5384
  22611896.2714  -11507696.08547  -8960481.57745                  22611893.5724
      3451.0454
  21987799.3234  -14367040.04347 -11187922.78146                  21987796.4634
       464.5564
  22552195.3584  -10619587.40747  -8485548.65245                  22552193.4724
      -151.4554
  22257910.0464  -13371270.15448 -10666199.55345                  22257908.1054
      -445.9384
  21267556.3984  -18423012.94248 -14349103.38846                  21267553.9644
      3036.1334
  22472385.6924  -15639884.95347 -12085825.11346                  22472384.1524
     -2200.7864
  20090951.1964  -27560923.71348 -21455394.24247                  20090948.4604
      -466.1184
  24057461.1554   -3042808.35246  -2354868.40444                  24057459.9824
      3799.4294
 06  6 29  3 50 29.9990000  0  9G15G18G21G29G26G 5G10G 9G30
  23002310.5544   -6101442.82847  -4743800.34644                  23002309.3884
      1660.4254
  22592205.9034  -11611170.06147  -9041110.62345                  22592203.0574
      3447.3884
  21985193.7544  -14380731.46148 -11198591.44246                  21985190.7134
       448.2814
  22553057.1104  -10615059.77747  -8482020.66545                  22553054.7034
      -150.2394
  22260453.0214  -13357902.97147 -10655783.56945                  22260451.5314
      -445.1954
  21250250.8754  -18513953.79848 -14419966.36846                  21250247.9944
      3026.7144
  22484981.7524  -15573695.89448 -12034249.26946                  22484979.4094
     -2211.7044
  20093649.4874  -27546745.59648 -21444346.34947                  20093646.3284
      -478.9214
  24035764.7984   -3156816.39746  -2443705.69443                  24035764.8484
      3801.2554
 06  6 29  3 50 59.9990000  0  9G15G18G21G29G26G 5G10G 9G30
  22992876.7134   -6151015.43547  -4782428.38144                  22992875.6064
      1644.3364
  22572536.7414  -11714531.89047  -9121652.30045                  22572533.7104
      3443.3934
  21982680.2494  -14393938.62647 -11208882.74946                  21982677.2704
       432.0704
  22553911.3844  -10610570.48648  -8478522.54445                  22553909.6734
      -149.0434
  22262993.1374  -13344559.73348 -10645386.27646                  22262990.6754
      -444.4634
  21232999.5094  -18604611.09948 -14490608.40646                  21232997.0824
      3017.0904
  22497638.1144  -15507185.11748 -11982422.73545                  22497636.0904
     -2222.4224
  20096419.6954  -27532186.08848 -21433001.27947                  20096416.9444
      -491.6994
  24014059.3624   -3270880.90546  -2532587.05944                  24014058.6374
      3803.0764
 06  6 29  3 51 29.9990000  0  9G15G18G21G29G26G 5G10G 9G30
  22983536.3394   -6200100.58847  -4820676.57044                  22983534.4674
      1628.1404
  22552890.8654  -11817772.22447  -9202099.26845                  22552887.5734
      3439.3654
  21980260.0974  -14406655.72047 -11218792.15846                  21980257.5284
       415.9574
  22554759.7974  -10606111.47147  -8475048.01445                  22554757.3514
      -148.0474
  22265529.0054  -13331232.87947 -10635001.72946                  22265526.6824
      -443.9014
  21215803.4284  -18694975.20148 -14561021.96946                  21215800.4354
      3007.3684
  22510356.8034  -15440347.52048 -11930341.53045                  22510355.1024
     -2233.2724
  20099263.6404  -27517240.62648 -21421355.46747                  20099260.9294
      -504.4734
  23992344.3704   -3384993.18846  -2621505.64544                  23992343.7904
      3804.7414
 06  6 29  3 51 59.9990000  0  9G15G18G21G29G26G 5G10G 9G30
  22974288.8684   -6248697.52147  -4858544.35144                  22974287.6144
      1611.5144
  22533268.6994  -11920888.01247  -9282449.23045                  22533265.6164
      3434.9564
  21977933.4534  -14418883.64847 -11228320.42846                  21977930.6504
       399.2634
  22555602.7554  -10601681.28448  -8471595.94145                  22555600.8914
      -147.4024
  22268061.7924  -13317921.50647 -10624629.23845                  22268059.8064
      -443.5554
  21198664.3734  -18785042.66148 -14631204.40146                  21198661.6044
      2997.0804
  22523137.5654  -15373184.26547 -11878006.56245                  22523135.4544
     -2244.2824
  20102180.8184  -27501910.34348 -21409409.79047                  20102178.2174
      -517.5244
  23970621.2804   -3499149.90746  -2710458.79744                  23970620.2824
      3805.8114
 06  6 29  3 52 29.9990000  0  9G15G18G21G29G26G 5G10G 9G30
  22965134.0184   -6296804.58647  -4896030.37244                  22965132.5754
      1595.4444
  22513670.6094  -12023875.66847  -9362699.33845                  22513667.1454
      3430.7084
  21975699.6104  -14430622.26647 -11237467.39646                  21975696.9104
       383.2574
  22556440.5834  -10597277.78747  -8468164.67845                  22556438.3844
      -146.4114
  22270592.2094  -13304623.60648 -10614267.26945                  22270590.5274
      -442.9984
  21181582.0054  -18874809.59248 -14701152.62446                  21181579.4894
      2987.2074
  22535980.1104  -15305695.62548 -11825418.04646                  22535978.7374
     -2254.9904
  20105171.3314  -27486196.63748 -21397165.36047                  20105168.4884
      -530.1424
  23948889.3864   -3613347.27147  -2799443.73544                  23948889.2914
      3807.2754
 06  6 29  3 52 59.9990000  0  9G15G18G21G29G26G 5G10G 9G30
  22956073.7994   -6344420.85747  -4933133.97744                  22956072.5324
      1578.8824
  22494098.6364  -12126731.91047  -9442847.04145                  22494094.6154
      3426.0944
  21973558.5864  -14441872.44047 -11246233.78546                  21973555.9024
       366.6944
  22557274.4704  -10592899.25547  -8464752.84245                  22557272.5394
      -145.6794
  22273120.7294  -13291338.02947 -10603914.90145                  22273118.1934
      -442.8814
  21164557.6354  -18964272.60448 -14770864.04546                  21164555.2764
      2976.7924
  22548884.4864  -15237882.71848 -11772576.85446                  22548882.6484
     -2266.0114
  20108234.0364  -27470101.23948 -21384623.49247                  20108231.5304
      -543.0424
  23927151.1304   -3727582.76346  -2888458.30744                  23927150.2504
      3808.2764
 06  6 29  3 53 29.9990000  0  9G15G18G21G29G26G 5G10G 9G30
  22947106.3754   -6391541.32747  -4969851.23544                  22947104.8734
      1562.3634
  22474551.5164  -12229449.35447  -9522886.58445                  22474548.0634
      3421.6414
  21971512.3484  -14452630.45447 -11254616.65546                  21971509.0214
       350.3714
  22558103.8614  -10588539.85947  -8461355.91345                  22558101.8124
      -144.9514
  22275647.5374  -13278059.38048 -10593567.90145                  22275644.9024
      -442.4714
  21147592.8614  -19053424.04448 -14840332.67646                  21147590.5814
      2966.5094
  22561851.4834  -15169742.05048 -11719480.27745                  22561850.0604
     -2276.7774
  20111370.0184  -27453621.20248 -21371781.90047                  20111367.7584
      -555.7284
  23905407.0074   -3841849.47746  -2977497.21044                  23905406.2044
      3809.3024
 06  6 29  3 53 59.9990000  0  9G15G18G21G29G26G 5G10G 9G30
  22938232.8574   -6438173.90347  -5006188.32044                  22938231.1444
      1546.4314
  22455030.3934  -12332033.96347  -9602822.64945                  22455026.8224
      3417.2174
  21969556.9744  -14462906.12448 -11262623.66946                  21969553.8284
       334.5074
  22558928.0574  -10584206.88747  -8457979.57845                  22558926.8694
      -144.0284
  22278171.4594  -13264795.33247 -10583232.28645                  22278169.9564
      -441.7924
  21130686.0944  -19142269.51148 -14909562.89746                  21130683.9054
      2956.4014
  22574878.6414  -15101283.50648 -11666135.98945                  22574877.0054
     -2287.2274
  20114577.3244  -27436767.53848 -21358649.17547                  20114574.6874
      -568.0714
  23883656.6714   -3956152.68346  -3066564.53544                  23883655.1764
      3810.6884
 06  6 29  3 54 29.9990000  0  9G15G18G21G29G26G 5G10G 9G30
  22929453.3784   -6484306.97547  -5042136.18544                  22929452.3314
      1529.3164
  22435537.0014  -12434471.46947  -9682644.05446                  22435533.9884
      3412.0364
  21967694.5684  -14472689.34247 -11270246.98146                  21967692.1634
       317.8474
  22559750.1164  -10579887.51547  -8454613.84845                  22559748.2824
      -143.8774
  22280695.1794  -13251533.74547 -10572898.60045                  22280692.6044
      -442.1144
  21113840.1774  -19230794.60048 -14978543.46646                  21113837.9164
      2945.3864
  22587968.1044  -15032497.32248 -11612536.39245                  22587966.3534
     -2298.3794
  20117857.2374  -27419531.15548 -21345218.22947                  20117854.2414
      -580.9724
  23861900.4014   -4070479.11947  -3155649.98044                  23861899.9464
      3810.9964
 06  6 29  3 54 59.9990000  0  9G15G18G21G29G26G 5G10G 9G30
  22920769.9754   -6529941.94747  -5077695.89644                  22920768.6584
      1512.9154
  22416072.1384  -12536760.92247  -9762350.10545                  22416068.7174
      3407.1434
  21965926.8034  -14481983.03747 -11277488.83746                  21965923.5544
       301.7334
  22560569.0724  -10575582.55247  -8451259.32645                  22560567.1044
      -143.3304
  22283218.2024  -13238275.70547 -10562567.69346                  22283216.0844
      -441.8464
  21097055.5104  -19318998.31948 -15047273.61146                  21097053.6324
      2934.7024
  22601119.6864  -14963386.75648 -11558684.05145                  22601118.6654
     -2309.1364
  20121209.4194  -27401916.15348 -21331492.26647                  20121206.5914
      -593.4574
  23840141.1444   -4184827.73147  -3244752.76344                  23840140.2864
      3811.9634
 06  6 29  3 55 29.9990000  0  9G15G18G21G29G26G 5G10G 9G30
  22912179.1724   -6575083.44747  -5112871.12244                  22912178.8684
      1496.4064
  22396634.5684  -12638904.45647  -9841942.45945                  22396630.7454
      3402.3054
  21964250.2644  -14490793.07147 -11284353.79145                  21964246.6914
       285.5474
  22561385.7154  -10571295.68647  -8447918.92445                  22561383.1264
      -142.6714
  22285739.6104  -13225025.25347 -10552242.66545                  22285737.5374
      -441.6414
  21080331.7254  -19406882.65748 -15115754.89346                  21080329.3824
      2924.1214
  22614331.6304  -14893958.03847 -11504583.79845                  22614329.8494
     -2319.6194
  20124632.6064  -27383929.07048 -21317476.36147                  20124629.5024
      -605.8544
  23818376.3284   -4299201.27347  -3333874.96144                  23818374.8714
      3812.7204
 06  6 29  3 55 59.9990000  0  9G15G18G21G29G26G 5G10G 9G30
  22903685.0424   -6619723.73247  -5147655.73144                  22903683.6604
      1479.8734
  22377226.3324  -12740892.18047  -9921413.38446                  22377223.4084
      3397.1924
  21962666.1934  -14499113.62647 -11290837.35845                  21962663.8584
       269.4784
  22562199.3034  -10567018.19847  -8444585.79245                  22562197.6294
      -142.2074
  22288261.1994  -13211774.21148 -10541917.18745                  22288259.1924
      -441.4404
  21063670.7604  -19494437.19348 -15183979.19646                  21063668.0664
      2913.2184
  22627604.6744  -14824205.26147 -11450231.00945                  22627603.6234
     -2330.2154
  20128127.1874  -27365564.52248 -21303166.32547                  20128124.4024
      -618.1494
  23796609.0584   -4413589.69247  -3423008.72744                  23796607.0864
      3813.4384
 06  6 29  3 56 29.9990000  0  9G15G18G21G29G26G 5G10G 9G30
  22895283.3714   -6663872.04847  -5182057.03444                  22895281.8054
      1463.5944
  22357847.7514  -12842730.75347 -10000768.11745                  22357844.6194
      3392.2074
  21961174.3024  -14506955.56947 -11296947.98146                  21961170.7864
       253.6824
  22563009.0934  -10562758.49247  -8441266.53545                  22563007.6474
      -141.4844
  22290781.1224  -13198531.33547 -10531598.09545                  22290778.9014
      -441.1334
  21047071.1674  -19581668.70448 -15251951.79646                  21047068.9114
      2902.4664
  22640937.8964  -14754139.64247 -11395634.48045                  22640936.7234
     -2340.5524
  20131691.3034  -27346834.91748 -21288571.82747                  20131687.8374
      -630.2204
  23774837.0824   -4527999.68647  -3512159.24944                  23774835.8694
      3814.1604
 06  6 29  3 56 59.9990000  0  9G15G18G21G29G26G 5G10G 9G30
  22886976.8684   -6707525.11747  -5216072.41444                  22886975.1694
      1446.8854
  22338498.0034  -12944414.59447 -10080002.25546                  22338494.4324
      3386.9194
  21959773.2534  -14514317.13847 -11302684.28846                  21959770.2634
       237.3734
  22563817.7834  -10558512.27947  -8437957.79345                  22563815.3704
      -141.2214
  22293300.2534  -13185292.95048 -10521282.48845                  22293298.5874
      -441.1624
  21030534.2084  -19668571.33048 -15319668.11146                  21030531.7204
      2891.3484
  22654330.6114  -14683759.64548 -11340792.96345                  22654329.6284
     -2351.1624
  20135325.1764  -27327738.89048 -21273691.78647                  20135321.9874
      -642.4954
  23753062.8844   -4642425.72547  -3601322.29944                  23753061.5934
      3814.5564
 06  6 29  3 57 29.9990000  0  9G15G18G21G29G26G 5G10G 9G30
  22878763.5714   -6750686.17247  -5249704.40044                  22878762.0074
      1430.5624
  22319176.9244  -13045944.37547 -10159116.35246                  22319174.4334
      3381.8604
  21958463.3594  -14521202.99047 -11308049.90645                  21958460.1144
       221.7634
  22564622.5194  -10554281.77147  -8434661.29745                  22564620.5244
      -140.6204
  22295817.4214  -13172061.42047 -10510972.20845                  22295816.8514
      -440.7474
  21014059.5764  -19755145.36248 -15387128.36746                  21014057.0134
      2880.4304
  22667782.8194  -14613070.13648 -11285710.26045                  22667781.4444
     -2361.3134
  20139027.7724  -27308282.48848 -21258530.95247                  20139024.6294
      -654.3804
  23731284.6204   -4756868.95247  -3690498.78444                  23731283.6464
      3815.1904
 06  6 29  3 57 59.9990000  0  9G15G18G21G29G26G 5G10G 9G30
  22870645.2784   -6793351.66846  -5282950.23944                  22870643.5284
      1414.0924
  22299887.2054  -13147313.91847 -10238105.57646                  22299884.7974
      3376.4164
  21957243.4024  -14527611.51248 -11313043.56946                  21957240.5464
       205.7374
  22565426.2874  -10550062.52047  -8431373.57745                  22565424.1904
      -140.4054
  22298335.3224  -13158832.91147 -10500664.30146                  22298333.7714
      -440.7714
  20997648.6734  -19841384.93648 -15454328.02846                  20997646.3994
      2869.2094
  22681293.7654  -14542069.64248 -11230385.22545                  22681291.9444
     -2371.7484
  20142798.6734  -27288464.25748 -21243088.18247                  20142795.6184
      -666.4994
  23709504.5244   -4871323.61447  -3779684.16044                  23709503.3824
      3815.4344
 06  6 29  3 58 29.9990000  0  9G15G18G21G29G26G 5G10G 9G30
  22862620.5784   -6835518.89746  -5315807.88144                  22862619.0604
      1397.1344
  22280629.5274  -13248517.66847 -10316965.62246                  22280625.4754
      3370.6594
  21956114.8864  -14533541.14547 -11317664.08045                  21956111.7564
       189.7024
  22566227.1584  -10545850.49547  -8428091.45845                  22566225.6464
      -140.3374
  22300852.3164  -13145603.70047 -10490355.85445                  22300850.9964
      -441.0254
  20981302.7514  -19927284.29348 -15521262.58446                  20981300.2764
      2857.5154
  22694863.8144  -14470756.74447 -11174816.79145                  22694862.2924
     -2382.3734
  20146639.4194  -27268283.30048 -21227362.76247                  20146636.3034
      -678.8184
  23687723.0284   -4985784.18547  -3868874.13845                  23687722.2114
      3815.3424
 06  6 29  3 58 59.9990000  0  9G15G18G21G29G26G 5G10G 9G30
  22854691.2804   -6877186.18047  -5348275.86644                  22854690.7444
      1380.8254
  22261402.5344  -13349551.59447 -10395693.32446                  22261399.5024
      3365.1714
  21955077.6824  -14538991.58848 -11321911.20145                  21955074.5554
       173.8924
  22567027.1764  -10541642.74747  -8424812.69445                  22567025.7294
      -139.9804
  22303371.7334  -13132371.52648 -10480045.09646                  22303368.6044
      -440.9084
  20965022.0124  -20012839.25548 -15587928.77346                  20965019.3984
      2846.2654
  22708494.0684  -14399131.67747 -11119005.09445                  22708492.7374
     -2392.4274
  20150548.3534  -27247740.94648 -21211355.74947                  20150545.1564
      -690.5224
  23665941.9534   -5100246.60047  -3958065.61444                  23665940.7544
      3815.5864
